Wetterdaten: Samstag, 25.02.2023
Datum Zeit Temp. Aussen Temp. o. S. Temp +5cm Feuchte Auss Luftdruck Regen Sonnenschein Regendauer Solar Windben Empfang
25.02.2023 00:00 3,9 C 3,3 C 1,1 C 92 % 1006,9 hPa 0,0 l/m 0 min 0 min 0 W/m 9,7 km/h (2 Bft) 96,30 %
25.02.2023 00:02 3,9 C 3,3 C 1,1 C 92 % 1006,9 hPa 0,0 l/m 0 min 0 min 0 W/m 12,9 km/h (3 Bft) 92,86 %
25.02.2023 00:04 3,9 C 3,3 C 1,1 C 92 % 1006,9 hPa 0,0 l/m 0 min 0 min 0 W/m 12,9 km/h (3 Bft) 98,00 %
25.02.2023 00:07 3,9 C 3,3 C 1,1 C 92 % 1007,0 hPa 0,0 l/m 0 min 0 min 0 W/m 12,9 km/h (3 Bft) 96,67 %
25.02.2023 00:08 3,9 C 3,3 C 1,1 C 92 % 1007,0 hPa 0,0 l/m 0 min 0 min 0 W/m 9,7 km/h (2 Bft) 96,05 %
25.02.2023 00:10 3,9 C 3,3 C 1,1 C 92 % 1007,0 hPa 0,0 l/m 0 min 0 min 0 W/m 22,5 km/h (4 Bft) 98,63 %
25.02.2023 00:12 3,9 C 3,3 C 1,1 C 92 % 1006,9 hPa 0,0 l/m 0 min 0 min 0 W/m 12,9 km/h (3 Bft) 97,87 %
25.02.2023 00:14 3,8 C 3,3 C 1,1 C 92 % 1006,9 hPa 0,0 l/m 0 min 0 min 0 W/m 16,1 km/h (3 Bft) 97,87 %
25.02.2023 00:16 3,8 C 3,3 C 1,1 C 92 % 1007,0 hPa 0,0 l/m 0 min 0 min 0 W/m 12,9 km/h (3 Bft) 100,00 %
25.02.2023 00:18 3,8 C 3,3 C 1,1 C 92 % 1007,0 hPa 0,0 l/m 0 min 0 min 0 W/m 12,9 km/h (3 Bft) 100,00 %
25.02.2023 00:20 3,8 C 3,3 C 0,6 C 93 % 1007,1 hPa 0,0 l/m 0 min 0 min 0 W/m 12,9 km/h (3 Bft) 100,00 %
25.02.2023 00:22 3,8 C 2,8 C 0,6 C 93 % 1007,1 hPa 0,0 l/m 0 min 0 min 0 W/m 12,9 km/h (3 Bft) 100,00 %
25.02.2023 00:24 3,7 C 2,8 C 0,6 C 93 % 1007,0 hPa 0,0 l/m 0 min 0 min 0 W/m 19,3 km/h (3 Bft) 100,00 %
25.02.2023 00:26 3,7 C 2,8 C 0,6 C 93 % 1007,0 hPa 0,0 l/m 0 min 0 min 0 W/m 6,4 km/h (2 Bft) 97,87 %
25.02.2023 00:28 3,7 C 2,8 C 0,6 C 92 % 1007,1 hPa 0,0 l/m 0 min 0 min 0 W/m 12,9 km/h (3 Bft) 100,00 %
25.02.2023 00:30 3,7 C 2,8 C 0,6 C 92 % 1007,1 hPa 0,0 l/m 0 min 0 min 0 W/m 12,9 km/h (3 Bft) 100,00 %
25.02.2023 00:32 3,7 C 2,8 C 0,6 C 92 % 1007,1 hPa 0,0 l/m 0 min 0 min 0 W/m 9,7 km/h (2 Bft) 100,00 %
25.02.2023 00:34 3,6 C 2,8 C 0,6 C 92 % 1007,1 hPa 0,0 l/m 0 min 0 min 0 W/m 9,7 km/h (2 Bft) 97,87 %
25.02.2023 00:36 3,6 C 2,8 C 0,6 C 93 % 1007,2 hPa 0,0 l/m 0 min 0 min 0 W/m 12,9 km/h (3 Bft) 100,00 %
25.02.2023 00:38 3,6 C 2,8 C 0,6 C 93 % 1007,2 hPa 0,0 l/m 0 min 0 min 0 W/m 12,9 km/h (3 Bft) 98,15 %
25.02.2023 00:40 3,6 C 3,3 C 0,6 C 93 % 1007,2 hPa 0,0 l/m 0 min 0 min 0 W/m 9,7 km/h (2 Bft) 97,87 %
25.02.2023 00:42 3,6 C 3,3 C 0,6 C 93 % 1007,2 hPa 0,0 l/m 0 min 0 min 0 W/m 9,7 km/h (2 Bft) 100,00 %
25.02.2023 00:44 3,6 C 3,3 C 0,6 C 93 % 1007,2 hPa 0,0 l/m 0 min 0 min 0 W/m 12,9 km/h (3 Bft) 97,87 %
25.02.2023 00:46 3,6 C 3,3 C 0,6 C 93 % 1007,1 hPa 0,0 l/m 0 min 0 min 0 W/m 6,4 km/h (2 Bft) 100,00 %
25.02.2023 00:48 3,7 C 3,3 C 0,6 C 93 % 1007,1 hPa 0,0 l/m 0 min 0 min 0 W/m 12,9 km/h (3 Bft) 100,00 %
25.02.2023 00:50 3,6 C 3,3 C 0,6 C 93 % 1007,1 hPa 0,0 l/m 0 min 0 min 0 W/m 9,7 km/h (2 Bft) 100,00 %
25.02.2023 00:52 3,7 C 3,3 C 0,6 C 93 % 1007,2 hPa 0,0 l/m 0 min 0 min 0 W/m 12,9 km/h (3 Bft) 100,00 %
25.02.2023 00:54 3,7 C 3,3 C 0,6 C 93 % 1007,2 hPa 0,0 l/m 0 min 0 min 0 W/m 6,4 km/h (2 Bft) 100,00 %
25.02.2023 00:56 3,6 C 3,3 C 0,6 C 93 % 1007,2 hPa 0,0 l/m 0 min 0 min 0 W/m 6,4 km/h (2 Bft) 100,00 %
25.02.2023 00:58 3,6 C 2,8 C 0,6 C 93 % 1007,2 hPa 0,0 l/m 0 min 0 min 0 W/m 9,7 km/h (2 Bft) 100,00 %
25.02.2023 01:00 3,6 C 2,8 C 0,6 C 93 % 1007,3 hPa 0,0 l/m 0 min 0 min 0 W/m 6,4 km/h (2 Bft) 100,00 %
25.02.2023 01:02 3,6 C 2,8 C 0,6 C 93 % 1007,3 hPa 0,0 l/m 0 min 0 min 0 W/m 9,7 km/h (2 Bft) 100,00 %
25.02.2023 01:04 3,6 C 2,8 C 0,6 C 93 % 1007,3 hPa 0,0 l/m 0 min 0 min 0 W/m 9,7 km/h (2 Bft) 100,00 %
25.02.2023 01:06 3,6 C 2,8 C 0,6 C 93 % 1007,4 hPa 0,0 l/m 0 min 0 min 0 W/m 9,7 km/h (2 Bft) 93,44 %
25.02.2023 01:08 3,6 C 2,8 C 0,6 C 93 % 1007,3 hPa 0,0 l/m 0 min 0 min 0 W/m 9,7 km/h (2 Bft) 100,00 %
25.02.2023 01:10 3,6 C 2,8 C 0,6 C 93 % 1007,4 hPa 0,0 l/m 0 min 0 min 0 W/m 9,7 km/h (2 Bft) 100,00 %
25.02.2023 01:12 3,6 C 2,8 C 0,6 C 93 % 1007,4 hPa 0,0 l/m 0 min 0 min 0 W/m 9,7 km/h (2 Bft) 97,87 %
25.02.2023 01:14 3,5 C 2,8 C 0,6 C 93 % 1007,5 hPa 0,0 l/m 0 min 0 min 0 W/m 9,7 km/h (2 Bft) 97,83 %
25.02.2023 01:16 3,5 C 2,8 C 0,6 C 93 % 1007,5 hPa 0,0 l/m 0 min 0 min 0 W/m 12,9 km/h (3 Bft) 100,00 %
25.02.2023 01:18 3,5 C 2,8 C 0,6 C 93 % 1007,4 hPa 0,0 l/m 0 min 0 min 0 W/m 9,7 km/h (2 Bft) 100,00 %
25.02.2023 01:20 3,5 C 2,8 C 0,6 C 93 % 1007,4 hPa 0,0 l/m 0 min 0 min 0 W/m 12,9 km/h (3 Bft) 95,74 %
25.02.2023 01:22 3,4 C 2,8 C 0,6 C 93 % 1007,3 hPa 0,0 l/m 0 min 0 min 0 W/m 22,5 km/h (4 Bft) 100,00 %
25.02.2023 01:24 3,4 C 2,8 C 0,6 C 93 % 1007,3 hPa 0,0 l/m 0 min 0 min 0 W/m 16,1 km/h (3 Bft) 100,00 %
25.02.2023 01:26 3,4 C 2,8 C 0,6 C 93 % 1007,3 hPa 0,0 l/m 0 min 0 min 0 W/m 12,9 km/h (3 Bft) 97,83 %
25.02.2023 01:28 3,4 C 2,8 C 0,6 C 93 % 1007,3 hPa 0,0 l/m 0 min 0 min 0 W/m 6,4 km/h (2 Bft) 100,00 %
25.02.2023 01:30 3,4 C 2,8 C 0,6 C 93 % 1007,4 hPa 0,0 l/m 0 min 0 min 0 W/m 16,1 km/h (3 Bft) 96,23 %
25.02.2023 01:32 3,4 C 2,8 C 0,6 C 93 % 1007,3 hPa 0,0 l/m 0 min 0 min 0 W/m 9,7 km/h (2 Bft) 50,00 %
25.02.2023 01:34 3,4 C 2,8 C 0,6 C 93 % 1007,2 hPa 0,0 l/m 0 min 0 min 0 W/m 16,1 km/h (3 Bft) 97,87 %
25.02.2023 01:36 3,4 C 2,8 C 0,6 C 93 % 1007,3 hPa 0,0 l/m 0 min 0 min 0 W/m 12,9 km/h (3 Bft) 95,74 %
25.02.2023 01:38 3,4 C 2,8 C 0,6 C 93 % 1007,3 hPa 0,0 l/m 0 min 0 min 0 W/m 16,1 km/h (3 Bft) 95,74 %
25.02.2023 01:40 3,4 C 2,8 C 0,6 C 93 % 1007,3 hPa 0,0 l/m 0 min 0 min 0 W/m 19,3 km/h (3 Bft) 93,62 %
25.02.2023 01:42 3,4 C 2,8 C 0,6 C 92 % 1007,2 hPa 0,0 l/m 0 min 0 min 0 W/m 12,9 km/h (3 Bft) 93,62 %
25.02.2023 01:44 3,4 C 2,8 C 0,6 C 92 % 1007,3 hPa 0,0 l/m 0 min 0 min 0 W/m 19,3 km/h (3 Bft) 93,62 %
25.02.2023 01:46 3,4 C 2,8 C 0,6 C 92 % 1007,3 hPa 0,0 l/m 0 min 0 min 0 W/m 22,5 km/h (4 Bft) 93,62 %
25.02.2023 01:48 3,4 C 2,8 C 0,6 C 92 % 1007,2 hPa 0,0 l/m 0 min 0 min 0 W/m 12,9 km/h (3 Bft) 95,83 %
25.02.2023 01:50 3,3 C 2,8 C 0,6 C 92 % 1007,2 hPa 0,0 l/m 0 min 0 min 0 W/m 12,9 km/h (3 Bft) 100,00 %
25.02.2023 01:52 3,3 C 2,8 C 0,6 C 92 % 1007,2 hPa 0,0 l/m 0 min 0 min 0 W/m 12,9 km/h (3 Bft) 91,38 %
25.02.2023 01:54 3,3 C 2,8 C 0,6 C 92 % 1007,2 hPa 0,0 l/m 0 min 0 min 0 W/m 16,1 km/h (3 Bft) 94,74 %
25.02.2023 01:56 3,3 C 2,8 C 0,6 C 92 % 1007,1 hPa 0,0 l/m 0 min 0 min 0 W/m 16,1 km/h (3 Bft) 91,49 %
25.02.2023 01:58 3,3 C 2,8 C 0,6 C 92 % 1007,2 hPa 0,0 l/m 0 min 0 min 0 W/m 9,7 km/h (2 Bft) 96,08 %
25.02.2023 02:00 3,3 C 2,8 C 0,6 C 92 % 1007,2 hPa 0,0 l/m 0 min 0 min 0 W/m 16,1 km/h (3 Bft) 95,65 %
25.02.2023 02:02 3,3 C 2,8 C 0,6 C 92 % 1007,2 hPa 0,0 l/m 0 min 0 min 0 W/m 9,7 km/h (2 Bft) 97,87 %
25.02.2023 02:04 3,3 C 2,8 C 0,6 C 92 % 1007,2 hPa 0,0 l/m 0 min 0 min 0 W/m 12,9 km/h (3 Bft) 95,74 %
25.02.2023 02:06 3,3 C 2,8 C 0,6 C 92 % 1007,3 hPa 0,0 l/m 0 min 0 min 0 W/m 12,9 km/h (3 Bft) 93,10 %
25.02.2023 02:08 3,3 C 2,8 C 0,6 C 92 % 1007,3 hPa 0,0 l/m 0 min 0 min 0 W/m 12,9 km/h (3 Bft) 94,29 %
25.02.2023 02:10 3,3 C 2,8 C 0,6 C 92 % 1007,2 hPa 0,0 l/m 0 min 0 min 0 W/m 6,4 km/h (2 Bft) 95,74 %
25.02.2023 02:14 3,3 C 2,8 C 0,6 C 92 % 1007,2 hPa 0,0 l/m 0 min 0 min 0 W/m 9,7 km/h (2 Bft) 100,00 %
25.02.2023 02:16 3,3 C 2,8 C 0,6 C 92 % 1007,2 hPa 0,0 l/m 0 min 0 min 0 W/m 9,7 km/h (2 Bft) 97,87 %
25.02.2023 02:18 3,3 C 2,8 C 0,6 C 92 % 1007,3 hPa 0,0 l/m 0 min 0 min 0 W/m 12,9 km/h (3 Bft) 100,00 %
25.02.2023 02:20 3,3 C 2,8 C 0,6 C 92 % 1007,2 hPa 0,0 l/m 0 min 0 min 0 W/m 9,7 km/h (2 Bft) 97,87 %
25.02.2023 02:22 3,3 C 2,8 C 0,6 C 92 % 1007,2 hPa 0,0 l/m 0 min 0 min 0 W/m 16,1 km/h (3 Bft) 97,83 %
25.02.2023 02:24 3,3 C 2,8 C 0,6 C 92 % 1007,2 hPa 0,0 l/m 0 min 0 min 0 W/m 12,9 km/h (3 Bft) 97,87 %
25.02.2023 02:26 3,3 C 2,8 C 0,6 C 92 % 1007,3 hPa 0,0 l/m 0 min 0 min 0 W/m 12,9 km/h (3 Bft) 93,62 %
25.02.2023 02:28 3,3 C 2,8 C 0,6 C 92 % 1007,3 hPa 0,0 l/m 0 min 0 min 0 W/m 9,7 km/h (2 Bft) 97,87 %
25.02.2023 02:30 3,3 C 2,8 C 0,6 C 92 % 1007,3 hPa 0,0 l/m 0 min 0 min 0 W/m 19,3 km/h (3 Bft) 95,74 %
25.02.2023 02:32 3,3 C 2,8 C 0,6 C 92 % 1007,3 hPa 0,0 l/m 0 min 0 min 0 W/m 6,4 km/h (2 Bft) 97,87 %
25.02.2023 02:34 3,3 C 2,8 C 0,6 C 92 % 1007,3 hPa 0,0 l/m 0 min 0 min 0 W/m 16,1 km/h (3 Bft) 97,83 %
25.02.2023 02:36 3,3 C 2,8 C 0,6 C 92 % 1007,3 hPa 0,0 l/m 0 min 0 min 0 W/m 12,9 km/h (3 Bft) 97,87 %
25.02.2023 02:38 3,3 C 2,8 C 0,6 C 92 % 1007,4 hPa 0,0 l/m 0 min 0 min 0 W/m 6,4 km/h (2 Bft) 98,28 %
25.02.2023 02:40 3,3 C 2,8 C 0,6 C 92 % 1007,4 hPa 0,0 l/m 0 min 0 min 0 W/m 16,1 km/h (3 Bft) 97,87 %
25.02.2023 02:42 3,3 C 2,8 C 0,6 C 92 % 1007,4 hPa 0,0 l/m 0 min 0 min 0 W/m 12,9 km/h (3 Bft) 95,74 %
25.02.2023 02:44 3,3 C 2,8 C 0,6 C 92 % 1007,4 hPa 0,0 l/m 0 min 0 min 0 W/m 16,1 km/h (3 Bft) 97,87 %
25.02.2023 02:46 3,3 C 2,8 C 0,6 C 92 % 1007,3 hPa 0,0 l/m 0 min 0 min 0 W/m 12,9 km/h (3 Bft) 100,00 %
25.02.2023 02:48 3,3 C 2,8 C 0,6 C 92 % 1007,3 hPa 0,0 l/m 0 min 0 min 0 W/m 9,7 km/h (2 Bft) 100,00 %
25.02.2023 02:50 3,3 C 2,8 C 0,6 C 92 % 1007,3 hPa 0,0 l/m 0 min 0 min 0 W/m 12,9 km/h (3 Bft) 100,00 %
25.02.2023 02:52 3,3 C 2,8 C 0,6 C 92 % 1007,3 hPa 0,0 l/m 0 min 0 min 0 W/m 12,9 km/h (3 Bft) 100,00 %
25.02.2023 02:54 3,3 C 2,8 C 0,6 C 92 % 1007,3 hPa 0,0 l/m 0 min 0 min 0 W/m 16,1 km/h (3 Bft) 100,00 %
25.02.2023 02:56 3,3 C 2,8 C 0,6 C 92 % 1007,3 hPa 0,0 l/m 0 min 0 min 0 W/m 16,1 km/h (3 Bft) 100,00 %
25.02.2023 02:58 3,3 C 2,8 C 0,6 C 92 % 1007,4 hPa 0,0 l/m 0 min 0 min 0 W/m 9,7 km/h (2 Bft) 100,00 %
25.02.2023 03:00 3,3 C 2,8 C 0,6 C 92 % 1007,4 hPa 0,0 l/m 0 min 0 min 0 W/m 19,3 km/h (3 Bft) 100,00 %
25.02.2023 03:02 3,3 C 2,8 C 0,6 C 92 % 1007,4 hPa 0,0 l/m 0 min 0 min 0 W/m 12,9 km/h (3 Bft) 100,00 %
25.02.2023 03:04 3,3 C 2,8 C 0,6 C 92 % 1007,5 hPa 0,0 l/m 0 min 0 min 0 W/m 9,7 km/h (2 Bft) 97,87 %
25.02.2023 03:06 3,3 C 2,8 C 0,6 C 92 % 1007,3 hPa 0,0 l/m 0 min 0 min 0 W/m 19,3 km/h (3 Bft) 100,00 %
25.02.2023 03:08 3,3 C 2,8 C 0,6 C 92 % 1007,3 hPa 0,0 l/m 0 min 0 min 0 W/m 12,9 km/h (3 Bft) 100,00 %
25.02.2023 03:10 3,3 C 2,8 C 0,6 C 92 % 1007,4 hPa 0,0 l/m 0 min 0 min 0 W/m 9,7 km/h (2 Bft) 97,87 %
25.02.2023 03:12 3,3 C 2,8 C 0,6 C 92 % 1007,3 hPa 0,0 l/m 0 min 0 min 0 W/m 12,9 km/h (3 Bft) 97,83 %
25.02.2023 03:14 3,3 C 2,8 C 0,6 C 92 % 1007,4 hPa 0,0 l/m 0 min 0 min 0 W/m 9,7 km/h (2 Bft) 97,87 %
25.02.2023 03:16 3,3 C 2,8 C 0,6 C 92 % 1007,5 hPa 0,0 l/m 0 min 0 min 0 W/m 16,1 km/h (3 Bft) 97,87 %
25.02.2023 03:18 3,4 C 2,8 C 0,6 C 92 % 1007,5 hPa 0,0 l/m 0 min 0 min 0 W/m 16,1 km/h (3 Bft) 97,87 %
25.02.2023 03:20 3,4 C 2,8 C 0,6 C 92 % 1007,4 hPa 0,0 l/m 0 min 0 min 0 W/m 12,9 km/h (3 Bft) 95,74 %
25.02.2023 03:22 3,4 C 2,8 C 0,6 C 92 % 1007,4 hPa 0,0 l/m 0 min 0 min 0 W/m 9,7 km/h (2 Bft) 97,87 %
25.02.2023 03:24 3,4 C 2,8 C 0,6 C 92 % 1007,4 hPa 0,0 l/m 0 min 0 min 0 W/m 12,9 km/h (3 Bft) 97,87 %
25.02.2023 03:26 3,4 C 2,8 C 0,6 C 92 % 1007,4 hPa 0,0 l/m 0 min 0 min 0 W/m 22,5 km/h (4 Bft) 97,83 %
25.02.2023 03:28 3,3 C 2,8 C 0,6 C 92 % 1007,4 hPa 0,0 l/m 0 min 0 min 0 W/m 9,7 km/h (2 Bft) 97,87 %
25.02.2023 03:30 3,4 C 2,8 C 0,6 C 92 % 1007,4 hPa 0,0 l/m 0 min 0 min 0 W/m 9,7 km/h (2 Bft) 97,87 %
25.02.2023 03:32 3,4 C 2,8 C 0,6 C 92 % 1007,4 hPa 0,0 l/m 0 min 0 min 0 W/m 9,7 km/h (2 Bft) 97,87 %
25.02.2023 03:34 3,3 C 2,8 C 0,6 C 92 % 1007,4 hPa 0,0 l/m 0 min 0 min 0 W/m 6,4 km/h (2 Bft) 97,87 %
25.02.2023 03:36 3,3 C 2,8 C 0,6 C 92 % 1007,4 hPa 0,0 l/m 0 min 0 min 0 W/m 12,9 km/h (3 Bft) 95,74 %
25.02.2023 03:38 3,3 C 2,8 C 0,6 C 92 % 1007,5 hPa 0,0 l/m 0 min 0 min 0 W/m 16,1 km/h (3 Bft) 97,83 %
25.02.2023 03:40 3,3 C 2,8 C 0,6 C 92 % 1007,3 hPa 0,0 l/m 0 min 0 min 0 W/m 19,3 km/h (3 Bft) 95,74 %
25.02.2023 03:42 3,3 C 2,8 C 0,6 C 92 % 1007,4 hPa 0,0 l/m 0 min 0 min 0 W/m 16,1 km/h (3 Bft) 97,87 %
25.02.2023 03:44 3,4 C 2,8 C 0,6 C 92 % 1007,3 hPa 0,0 l/m 0 min 0 min 0 W/m 16,1 km/h (3 Bft) 98,18 %
25.02.2023 03:46 3,3 C 2,8 C 0,6 C 92 % 1007,4 hPa 0,0 l/m 0 min 0 min 0 W/m 19,3 km/h (3 Bft) 100,00 %
25.02.2023 03:48 3,3 C 2,8 C 0,6 C 92 % 1007,3 hPa 0,0 l/m 0 min 0 min 0 W/m 12,9 km/h (3 Bft) 97,87 %
25.02.2023 03:50 3,3 C 2,8 C 0,6 C 91 % 1007,3 hPa 0,0 l/m 0 min 0 min 0 W/m 9,7 km/h (2 Bft) 95,65 %
25.02.2023 03:52 3,3 C 2,8 C 0,6 C 91 % 1007,4 hPa 0,0 l/m 0 min 0 min 0 W/m 12,9 km/h (3 Bft) 100,00 %
25.02.2023 03:54 3,3 C 2,8 C 0,6 C 91 % 1007,4 hPa 0,0 l/m 0 min 0 min 0 W/m 16,1 km/h (3 Bft) 97,87 %
25.02.2023 03:56 3,3 C 2,8 C 0,6 C 91 % 1007,4 hPa 0,0 l/m 0 min 0 min 0 W/m 16,1 km/h (3 Bft) 100,00 %
25.02.2023 03:58 3,3 C 2,8 C 0,6 C 91 % 1007,5 hPa 0,0 l/m 0 min 0 min 0 W/m 19,3 km/h (3 Bft) 100,00 %
25.02.2023 04:00 3,3 C 2,8 C 0,6 C 91 % 1007,5 hPa 0,0 l/m 0 min 0 min 0 W/m 9,7 km/h (2 Bft) 100,00 %
25.02.2023 04:02 3,3 C 2,8 C 0,6 C 91 % 1007,4 hPa 0,0 l/m 0 min 0 min 0 W/m 12,9 km/h (3 Bft) 97,83 %
25.02.2023 04:04 3,3 C 2,8 C 0,6 C 91 % 1007,4 hPa 0,0 l/m 0 min 0 min 0 W/m 12,9 km/h (3 Bft) 95,74 %
25.02.2023 04:06 3,3 C 2,8 C 0,6 C 91 % 1007,4 hPa 0,0 l/m 0 min 0 min 0 W/m 12,9 km/h (3 Bft) 93,62 %
25.02.2023 04:08 3,3 C 2,8 C 0,6 C 91 % 1007,5 hPa 0,0 l/m 0 min 0 min 0 W/m 12,9 km/h (3 Bft) 97,87 %
25.02.2023 04:10 3,3 C 2,8 C 0,6 C 91 % 1007,5 hPa 0,0 l/m 0 min 0 min 0 W/m 12,9 km/h (3 Bft) 97,87 %
25.02.2023 04:12 3,3 C 2,8 C 0,6 C 91 % 1007,4 hPa 0,0 l/m 0 min 0 min 0 W/m 19,3 km/h (3 Bft) 97,92 %
25.02.2023 04:14 3,3 C 2,8 C 0,6 C 91 % 1007,4 hPa 0,0 l/m 0 min 0 min 0 W/m 16,1 km/h (3 Bft) 97,87 %
25.02.2023 04:16 3,3 C 2,8 C 0,6 C 91 % 1007,4 hPa 0,0 l/m 0 min 0 min 0 W/m 19,3 km/h (3 Bft) 94,59 %
25.02.2023 04:18 3,3 C 2,8 C 0,6 C 91 % 1007,4 hPa 0,0 l/m 0 min 0 min 0 W/m 16,1 km/h (3 Bft) 95,65 %
25.02.2023 04:20 3,3 C 2,8 C 0,6 C 91 % 1007,4 hPa 0,0 l/m 0 min 0 min 0 W/m 22,5 km/h (4 Bft) 97,87 %
25.02.2023 04:22 3,3 C 2,8 C 0,6 C 91 % 1007,4 hPa 0,0 l/m 0 min 0 min 0 W/m 19,3 km/h (3 Bft) 97,87 %
25.02.2023 04:24 3,3 C 2,8 C 0,6 C 91 % 1007,5 hPa 0,0 l/m 0 min 0 min 0 W/m 16,1 km/h (3 Bft) 97,87 %
25.02.2023 04:26 3,4 C 2,8 C 0,6 C 91 % 1007,5 hPa 0,0 l/m 0 min 0 min 0 W/m 16,1 km/h (3 Bft) 100,00 %
25.02.2023 04:28 3,4 C 2,8 C 0,6 C 91 % 1007,5 hPa 0,0 l/m 0 min 0 min 0 W/m 9,7 km/h (2 Bft) 95,74 %
25.02.2023 04:30 3,4 C 2,8 C 0,6 C 91 % 1007,6 hPa 0,0 l/m 0 min 0 min 0 W/m 12,9 km/h (3 Bft) 97,83 %
25.02.2023 04:32 3,4 C 2,8 C 0,6 C 91 % 1007,5 hPa 0,0 l/m 0 min 0 min 0 W/m 19,3 km/h (3 Bft) 100,00 %
25.02.2023 04:34 3,4 C 2,8 C 0,6 C 91 % 1007,5 hPa 0,0 l/m 0 min 0 min 0 W/m 16,1 km/h (3 Bft) 100,00 %
25.02.2023 04:36 3,4 C 2,8 C 0,6 C 91 % 1007,6 hPa 0,0 l/m 0 min 0 min 0 W/m 12,9 km/h (3 Bft) 97,87 %
25.02.2023 04:38 3,4 C 2,8 C 0,6 C 91 % 1007,5 hPa 0,0 l/m 0 min 0 min 0 W/m 12,9 km/h (3 Bft) 97,87 %
25.02.2023 04:40 3,4 C 2,8 C 0,6 C 91 % 1007,6 hPa 0,0 l/m 0 min 0 min 0 W/m 9,7 km/h (2 Bft) 95,74 %
25.02.2023 04:42 3,4 C 2,8 C 0,6 C 91 % 1007,6 hPa 0,0 l/m 0 min 0 min 0 W/m 12,9 km/h (3 Bft) 97,96 %
25.02.2023 04:44 3,4 C 2,8 C 0,6 C 91 % 1007,6 hPa 0,0 l/m 0 min 0 min 0 W/m 9,7 km/h (2 Bft) 95,74 %
25.02.2023 04:46 3,4 C 2,8 C 0,6 C 91 % 1007,6 hPa 0,0 l/m 0 min 0 min 0 W/m 9,7 km/h (2 Bft) 100,00 %
25.02.2023 04:48 3,4 C 2,8 C 0,6 C 91 % 1007,6 hPa 0,0 l/m 0 min 0 min 0 W/m 12,9 km/h (3 Bft) 100,00 %
25.02.2023 04:50 3,4 C 2,8 C 0,6 C 91 % 1007,6 hPa 0,0 l/m 0 min 0 min 0 W/m 12,9 km/h (3 Bft) 100,00 %
25.02.2023 04:52 3,4 C 2,8 C 0,6 C 91 % 1007,7 hPa 0,0 l/m 0 min 0 min 0 W/m 12,9 km/h (3 Bft) 100,00 %
25.02.2023 04:54 3,4 C 2,8 C 0,6 C 91 % 1007,7 hPa 0,0 l/m 0 min 0 min 0 W/m 16,1 km/h (3 Bft) 100,00 %
25.02.2023 04:56 3,4 C 2,8 C 0,6 C 91 % 1007,7 hPa 0,0 l/m 0 min 0 min 0 W/m 9,7 km/h (2 Bft) 100,00 %
25.02.2023 04:58 3,4 C 2,8 C 0,6 C 91 % 1007,7 hPa 0,0 l/m 0 min 0 min 0 W/m 12,9 km/h (3 Bft) 100,00 %
25.02.2023 05:00 3,4 C 2,8 C 0,6 C 91 % 1007,7 hPa 0,0 l/m 0 min 0 min 0 W/m 12,9 km/h (3 Bft) 100,00 %
25.02.2023 05:02 3,4 C 2,8 C 0,6 C 91 % 1007,7 hPa 0,0 l/m 0 min 0 min 0 W/m 12,9 km/h (3 Bft) 100,00 %
25.02.2023 05:04 3,4 C 2,8 C 0,6 C 91 % 1007,7 hPa 0,0 l/m 0 min 0 min 0 W/m 12,9 km/h (3 Bft) 97,87 %
25.02.2023 05:06 3,4 C 2,8 C 0,6 C 91 % 1007,8 hPa 0,0 l/m 0 min 0 min 0 W/m 19,3 km/h (3 Bft) 96,61 %
25.02.2023 05:08 3,4 C 2,8 C 0,6 C 91 % 1007,7 hPa 0,0 l/m 0 min 0 min 0 W/m 9,7 km/h (2 Bft) 94,29 %
25.02.2023 05:10 3,4 C 2,8 C 0,6 C 91 % 1007,7 hPa 0,0 l/m 0 min 0 min 0 W/m 16,1 km/h (3 Bft) 93,62 %
25.02.2023 05:12 3,4 C 2,8 C 0,6 C 91 % 1007,7 hPa 0,0 l/m 0 min 0 min 0 W/m 12,9 km/h (3 Bft) 97,87 %
25.02.2023 05:14 3,4 C 2,8 C 0,6 C 91 % 1007,7 hPa 0,0 l/m 0 min 0 min 0 W/m 9,7 km/h (2 Bft) 50,00 %
25.02.2023 05:16 3,4 C 2,8 C 0,6 C 91 % 1007,6 hPa 0,0 l/m 0 min 0 min 0 W/m 9,7 km/h (2 Bft) 95,12 %
25.02.2023 05:18 3,4 C 2,8 C 0,6 C 91 % 1007,8 hPa 0,0 l/m 0 min 0 min 0 W/m 9,7 km/h (2 Bft) 95,74 %
25.02.2023 05:20 3,4 C 2,8 C 0,6 C 91 % 1007,7 hPa 0,0 l/m 0 min 0 min 0 W/m 9,7 km/h (2 Bft) 95,74 %
25.02.2023 05:22 3,4 C 2,8 C 0,6 C 91 % 1007,8 hPa 0,0 l/m 0 min 0 min 0 W/m 12,9 km/h (3 Bft) 95,65 %
25.02.2023 05:24 3,4 C 2,8 C 0,6 C 91 % 1007,8 hPa 0,0 l/m 0 min 0 min 0 W/m 12,9 km/h (3 Bft) 93,62 %
25.02.2023 05:26 3,4 C 2,8 C 0,6 C 91 % 1007,9 hPa 0,0 l/m 0 min 0 min 0 W/m 9,7 km/h (2 Bft) 95,74 %
25.02.2023 05:28 3,4 C 2,8 C 0,6 C 91 % 1008,0 hPa 0,0 l/m 0 min 0 min 0 W/m 12,9 km/h (3 Bft) 93,62 %
25.02.2023 05:30 3,4 C 2,8 C 0,6 C 91 % 1007,8 hPa 0,0 l/m 0 min 0 min 0 W/m 12,9 km/h (3 Bft) 93,62 %
25.02.2023 05:32 3,4 C 2,8 C 0,6 C 91 % 1007,8 hPa 0,0 l/m 0 min 0 min 0 W/m 12,9 km/h (3 Bft) 95,74 %
25.02.2023 05:34 3,4 C 2,8 C 0,6 C 91 % 1007,8 hPa 0,0 l/m 0 min 0 min 0 W/m 16,1 km/h (3 Bft) 98,15 %
25.02.2023 05:36 3,4 C 2,8 C 0,6 C 91 % 1007,9 hPa 0,0 l/m 0 min 0 min 0 W/m 9,7 km/h (2 Bft) 97,37 %
25.02.2023 05:38 3,4 C 2,8 C 0,6 C 91 % 1007,9 hPa 0,0 l/m 0 min 0 min 0 W/m 9,7 km/h (2 Bft) 97,87 %
25.02.2023 05:40 3,4 C 2,8 C 0,6 C 91 % 1007,9 hPa 0,0 l/m 0 min 0 min 0 W/m 9,7 km/h (2 Bft) 95,83 %
25.02.2023 05:42 3,4 C 2,8 C 0,6 C 91 % 1007,8 hPa 0,0 l/m 0 min 0 min 0 W/m 16,1 km/h (3 Bft) 95,74 %
25.02.2023 05:44 3,4 C 2,8 C 0,6 C 91 % 1007,9 hPa 0,0 l/m 0 min 0 min 0 W/m 16,1 km/h (3 Bft) 95,74 %
25.02.2023 05:46 3,4 C 2,8 C 0,6 C 91 % 1007,8 hPa 0,0 l/m 0 min 0 min 0 W/m 9,7 km/h (2 Bft) 97,83 %
25.02.2023 05:48 3,4 C 2,8 C 0,6 C 91 % 1007,8 hPa 0,0 l/m 0 min 0 min 0 W/m 9,7 km/h (2 Bft) 97,87 %
25.02.2023 05:50 3,4 C 2,8 C 0,6 C 91 % 1007,7 hPa 0,0 l/m 0 min 0 min 0 W/m 12,9 km/h (3 Bft) 97,87 %
25.02.2023 05:52 3,4 C 2,8 C 0,6 C 91 % 1007,8 hPa 0,0 l/m 0 min 0 min 0 W/m 12,9 km/h (3 Bft) 97,87 %
25.02.2023 05:54 3,4 C 2,8 C 0,6 C 91 % 1007,8 hPa 0,0 l/m 0 min 0 min 0 W/m 9,7 km/h (2 Bft) 97,87 %
25.02.2023 05:56 3,4 C 2,8 C 0,6 C 91 % 1007,8 hPa 0,0 l/m 0 min 0 min 0 W/m 12,9 km/h (3 Bft) 97,87 %
25.02.2023 05:58 3,4 C 2,8 C 0,6 C 91 % 1007,7 hPa 0,0 l/m 0 min 0 min 0 W/m 12,9 km/h (3 Bft) 97,87 %
25.02.2023 06:00 3,4 C 2,8 C 0,6 C 91 % 1007,8 hPa 0,0 l/m 0 min 0 min 0 W/m 12,9 km/h (3 Bft) 100,00 %
25.02.2023 06:02 3,4 C 2,8 C 0,6 C 91 % 1007,8 hPa 0,0 l/m 0 min 0 min 0 W/m 6,4 km/h (2 Bft) 100,00 %
25.02.2023 06:04 3,4 C 2,8 C 0,6 C 91 % 1007,9 hPa 0,0 l/m 0 min 0 min 0 W/m 16,1 km/h (3 Bft) 100,00 %
25.02.2023 06:08 3,4 C 2,8 C 0,6 C 91 % 1007,9 hPa 0,0 l/m 0 min 0 min 0 W/m 12,9 km/h (3 Bft) 99,01 %
25.02.2023 06:10 3,4 C 2,8 C 0,6 C 91 % 1007,9 hPa 0,0 l/m 0 min 0 min 0 W/m 9,7 km/h (2 Bft) 100,00 %
25.02.2023 06:12 3,4 C 2,8 C 0,6 C 91 % 1007,9 hPa 0,0 l/m 0 min 0 min 0 W/m 12,9 km/h (3 Bft) 95,65 %
25.02.2023 06:14 3,4 C 2,8 C 0,6 C 91 % 1007,9 hPa 0,0 l/m 0 min 0 min 0 W/m 16,1 km/h (3 Bft) 100,00 %
25.02.2023 06:16 3,4 C 2,8 C 0,6 C 91 % 1007,9 hPa 0,0 l/m 0 min 0 min 0 W/m 12,9 km/h (3 Bft) 100,00 %
25.02.2023 06:18 3,4 C 2,8 C 0,6 C 91 % 1007,9 hPa 0,0 l/m 0 min 0 min 0 W/m 16,1 km/h (3 Bft) 97,87 %
25.02.2023 06:20 3,4 C 2,8 C 0,6 C 91 % 1007,9 hPa 0,0 l/m 0 min 0 min 0 W/m 12,9 km/h (3 Bft) 97,87 %
25.02.2023 06:22 3,5 C 2,8 C 0,6 C 91 % 1007,9 hPa 0,0 l/m 0 min 0 min 0 W/m 12,9 km/h (3 Bft) 100,00 %
25.02.2023 06:24 3,4 C 2,8 C 0,6 C 91 % 1007,8 hPa 0,0 l/m 0 min 0 min 0 W/m 9,7 km/h (2 Bft) 97,92 %
25.02.2023 06:26 3,4 C 2,8 C 0,6 C 91 % 1007,8 hPa 0,0 l/m 0 min 0 min 0 W/m 12,9 km/h (3 Bft) 100,00 %
25.02.2023 06:28 3,4 C 2,8 C 0,6 C 91 % 1007,8 hPa 0,0 l/m 0 min 0 min 0 W/m 9,7 km/h (2 Bft) 100,00 %
25.02.2023 06:30 3,4 C 2,8 C 0,6 C 91 % 1007,8 hPa 0,0 l/m 0 min 0 min 0 W/m 12,9 km/h (3 Bft) 97,87 %
25.02.2023 06:32 3,4 C 2,8 C 0,6 C 91 % 1007,8 hPa 0,0 l/m 0 min 0 min 0 W/m 12,9 km/h (3 Bft) 100,00 %
25.02.2023 06:34 3,4 C 2,8 C 0,6 C 91 % 1007,9 hPa 0,0 l/m 0 min 0 min 0 W/m 9,7 km/h (2 Bft) 100,00 %
25.02.2023 06:36 3,4 C 2,8 C 0,6 C 91 % 1007,8 hPa 0,0 l/m 0 min 0 min 0 W/m 16,1 km/h (3 Bft) 97,87 %
25.02.2023 06:38 3,4 C 2,8 C 0,6 C 91 % 1007,9 hPa 0,0 l/m 0 min 0 min 0 W/m 9,7 km/h (2 Bft) 97,87 %
25.02.2023 06:40 3,3 C 2,8 C 0,6 C 91 % 1007,9 hPa 0,0 l/m 0 min 0 min 0 W/m 12,9 km/h (3 Bft) 95,65 %
25.02.2023 06:42 3,3 C 2,8 C 0,6 C 91 % 1007,9 hPa 0,0 l/m 0 min 0 min 0 W/m 9,7 km/h (2 Bft) 97,92 %
25.02.2023 06:44 3,3 C 2,8 C 0,6 C 91 % 1008,0 hPa 0,0 l/m 0 min 0 min 0 W/m 12,9 km/h (3 Bft) 97,87 %
25.02.2023 06:46 3,3 C 2,8 C 0,0 C 91 % 1008,0 hPa 0,0 l/m 0 min 0 min 0 W/m 12,9 km/h (3 Bft) 97,87 %
25.02.2023 06:48 3,3 C 2,8 C 0,0 C 91 % 1008,0 hPa 0,0 l/m 0 min 0 min 0 W/m 9,7 km/h (2 Bft) 97,87 %
25.02.2023 06:50 3,3 C 2,8 C 0,6 C 91 % 1008,0 hPa 0,0 l/m 0 min 0 min 0 W/m 16,1 km/h (3 Bft) 95,65 %
25.02.2023 06:52 3,3 C 2,8 C 0,6 C 91 % 1007,9 hPa 0,0 l/m 0 min 0 min 0 W/m 12,9 km/h (3 Bft) 97,87 %
25.02.2023 06:54 3,3 C 2,8 C 0,6 C 91 % 1007,9 hPa 0,0 l/m 0 min 0 min 0 W/m 9,7 km/h (2 Bft) 95,74 %
25.02.2023 06:56 3,3 C 2,8 C 0,6 C 91 % 1008,0 hPa 0,0 l/m 0 min 0 min 0 W/m 12,9 km/h (3 Bft) 93,62 %
25.02.2023 06:58 3,3 C 2,8 C 0,6 C 91 % 1008,0 hPa 0,0 l/m 0 min 0 min 0 W/m 12,9 km/h (3 Bft) 95,74 %
25.02.2023 07:00 3,3 C 2,8 C 0,6 C 91 % 1008,0 hPa 0,0 l/m 0 min 0 min 0 W/m 16,1 km/h (3 Bft) 95,74 %
25.02.2023 07:02 3,3 C 2,8 C 0,6 C 91 % 1008,0 hPa 0,0 l/m 0 min 0 min 0 W/m 16,1 km/h (3 Bft) 95,74 %
25.02.2023 07:04 3,3 C 2,8 C 0,6 C 91 % 1008,0 hPa 0,0 l/m 0 min 0 min 0 W/m 19,3 km/h (3 Bft) 95,65 %
25.02.2023 07:06 3,3 C 2,8 C 0,6 C 91 % 1008,1 hPa 0,0 l/m 0 min 0 min 0 W/m 12,9 km/h (3 Bft) 94,23 %
25.02.2023 07:08 3,3 C 2,8 C 0,6 C 91 % 1008,1 hPa 0,0 l/m 0 min 0 min 0 W/m 12,9 km/h (3 Bft) 95,24 %
25.02.2023 07:10 3,3 C 2,8 C 0,6 C 91 % 1008,0 hPa 0,0 l/m 0 min 0 min 0 W/m 12,9 km/h (3 Bft) 93,62 %
25.02.2023 07:12 3,4 C 2,8 C 0,6 C 91 % 1008,0 hPa 0,0 l/m 0 min 0 min 0 W/m 9,7 km/h (2 Bft) 95,74 %
25.02.2023 07:14 3,4 C 2,8 C 0,6 C 91 % 1008,1 hPa 0,0 l/m 0 min 0 min 0 W/m 9,7 km/h (2 Bft) 95,74 %
25.02.2023 07:16 3,3 C 2,8 C 0,6 C 91 % 1008,1 hPa 0,0 l/m 0 min 0 min 0 W/m 12,9 km/h (3 Bft) 95,65 %
25.02.2023 07:18 3,4 C 2,8 C 0,6 C 91 % 1008,0 hPa 0,0 l/m 0 min 0 min 0 W/m 16,1 km/h (3 Bft) 97,87 %
25.02.2023 07:20 3,4 C 2,8 C 0,6 C 91 % 1008,0 hPa 0,0 l/m 0 min 0 min 0 W/m 16,1 km/h (3 Bft) 97,87 %
25.02.2023 07:22 3,4 C 2,8 C 0,6 C 91 % 1008,0 hPa 0,0 l/m 0 min 0 min 0 W/m 9,7 km/h (2 Bft) 97,87 %
25.02.2023 07:24 3,4 C 2,8 C 0,6 C 91 % 1008,1 hPa 0,0 l/m 0 min 0 min 0 W/m 9,7 km/h (2 Bft) 95,74 %
25.02.2023 07:26 3,4 C 2,8 C 0,6 C 91 % 1008,1 hPa 0,0 l/m 0 min 0 min 0 W/m 12,9 km/h (3 Bft) 95,74 %
25.02.2023 07:31 3,4 C 2,8 C 0,6 C 91 % 1008,1 hPa 0,0 l/m 0 min 0 min 0 W/m 9,7 km/h (2 Bft) 100,00 %
25.02.2023 07:32 3,4 C 2,8 C 0,6 C 91 % 1008,1 hPa 0,0 l/m 0 min 0 min 0 W/m 9,7 km/h (2 Bft) 95,65 %
25.02.2023 07:38 3,4 C 2,8 C 0,6 C 91 % 1008,2 hPa 0,0 l/m 0 min 0 min 0 W/m 12,9 km/h (3 Bft) 100,00 %
25.02.2023 07:40 3,4 C 2,8 C 0,6 C 91 % 1008,2 hPa 0,0 l/m 0 min 0 min 5 W/m 16,1 km/h (3 Bft) 97,87 %
25.02.2023 07:42 3,4 C 2,8 C 0,6 C 91 % 1008,3 hPa 0,0 l/m 0 min 0 min 7 W/m 16,1 km/h (3 Bft) 100,00 %
25.02.2023 07:44 3,4 C 2,8 C 0,6 C 91 % 1008,2 hPa 0,0 l/m 0 min 0 min 6 W/m 9,7 km/h (2 Bft) 100,00 %
25.02.2023 07:46 3,4 C 2,8 C 0,6 C 91 % 1008,2 hPa 0,0 l/m 0 min 0 min 6 W/m 12,9 km/h (3 Bft) 100,00 %
25.02.2023 07:48 3,4 C 2,8 C 0,6 C 91 % 1008,3 hPa 0,0 l/m 0 min 0 min 7 W/m 9,7 km/h (2 Bft) 95,74 %
25.02.2023 07:50 3,4 C 2,8 C 0,6 C 91 % 1008,3 hPa 0,0 l/m 0 min 0 min 9 W/m 19,3 km/h (3 Bft) 100,00 %
25.02.2023 07:52 3,4 C 2,8 C 0,6 C 91 % 1008,4 hPa 0,0 l/m 0 min 0 min 10 W/m 9,7 km/h (2 Bft) 100,00 %
25.02.2023 07:54 3,4 C 2,8 C 0,6 C 91 % 1008,4 hPa 0,0 l/m 0 min 0 min 11 W/m 12,9 km/h (3 Bft) 100,00 %
25.02.2023 07:56 3,4 C 2,8 C 0,6 C 91 % 1008,4 hPa 0,0 l/m 0 min 0 min 11 W/m 9,7 km/h (2 Bft) 97,87 %
25.02.2023 07:58 3,4 C 2,8 C 0,6 C 91 % 1008,4 hPa 0,0 l/m 0 min 0 min 13 W/m 9,7 km/h (2 Bft) 100,00 %
25.02.2023 08:00 3,4 C 3,3 C 0,6 C 91 % 1008,5 hPa 0,0 l/m 0 min 0 min 16 W/m 12,9 km/h (3 Bft) 100,00 %
25.02.2023 08:02 3,5 C 3,3 C 0,6 C 91 % 1008,4 hPa 0,0 l/m 0 min 0 min 21 W/m 19,3 km/h (3 Bft) 100,00 %
25.02.2023 08:04 3,5 C 3,3 C 0,6 C 91 % 1008,5 hPa 0,0 l/m 0 min 0 min 25 W/m 9,7 km/h (2 Bft) 100,00 %
25.02.2023 08:06 3,5 C 3,3 C 0,6 C 91 % 1008,5 hPa 0,0 l/m 0 min 0 min 22 W/m 12,9 km/h (3 Bft) 98,08 %
25.02.2023 08:08 3,5 C 3,3 C 0,6 C 91 % 1008,5 hPa 0,0 l/m 0 min 0 min 21 W/m 12,9 km/h (3 Bft) 100,00 %
25.02.2023 08:10 3,5 C 3,3 C 0,6 C 91 % 1008,6 hPa 0,0 l/m 0 min 0 min 24 W/m 16,1 km/h (3 Bft) 100,00 %
25.02.2023 08:12 3,5 C 3,3 C 0,6 C 91 % 1008,6 hPa 0,0 l/m 0 min 0 min 26 W/m 12,9 km/h (3 Bft) 97,87 %
25.02.2023 08:14 3,5 C 3,3 C 0,6 C 90 % 1008,6 hPa 0,0 l/m 0 min 0 min 25 W/m 16,1 km/h (3 Bft) 95,74 %
25.02.2023 08:16 3,5 C 2,8 C 0,6 C 90 % 1008,6 hPa 0,0 l/m 0 min 0 min 25 W/m 12,9 km/h (3 Bft) 95,74 %
25.02.2023 08:18 3,4 C 2,8 C 0,6 C 90 % 1008,5 hPa 0,0 l/m 0 min 0 min 24 W/m 16,1 km/h (3 Bft) 95,74 %
25.02.2023 08:20 3,4 C 2,8 C 0,6 C 90 % 1008,6 hPa 0,0 l/m 0 min 0 min 25 W/m 12,9 km/h (3 Bft) 97,83 %
25.02.2023 08:22 3,4 C 2,8 C 0,6 C 90 % 1008,6 hPa 0,0 l/m 0 min 0 min 29 W/m 16,1 km/h (3 Bft) 97,87 %
25.02.2023 08:24 3,4 C 2,8 C 0,6 C 90 % 1008,6 hPa 0,0 l/m 0 min 0 min 39 W/m 16,1 km/h (3 Bft) 97,87 %
25.02.2023 08:26 3,4 C 3,3 C 0,6 C 90 % 1008,7 hPa 0,0 l/m 0 min 0 min 49 W/m 12,9 km/h (3 Bft) 93,62 %
25.02.2023 08:28 3,4 C 3,3 C 0,6 C 90 % 1008,7 hPa 0,0 l/m 0 min 0 min 54 W/m 12,9 km/h (3 Bft) 97,87 %
25.02.2023 08:30 3,4 C 3,3 C 0,6 C 90 % 1008,6 hPa 0,0 l/m 0 min 0 min 57 W/m 12,9 km/h (3 Bft) 93,62 %
25.02.2023 08:32 3,4 C 3,3 C 0,6 C 90 % 1008,7 hPa 0,0 l/m 0 min 0 min 60 W/m 19,3 km/h (3 Bft) 93,48 %
25.02.2023 08:34 3,4 C 3,3 C 0,6 C 90 % 1008,6 hPa 0,0 l/m 0 min 0 min 56 W/m 12,9 km/h (3 Bft) 95,74 %
25.02.2023 08:36 3,5 C 3,3 C 0,6 C 90 % 1008,6 hPa 0,0 l/m 0 min 0 min 54 W/m 16,1 km/h (3 Bft) 97,87 %
25.02.2023 08:38 3,5 C 3,3 C 0,6 C 90 % 1008,6 hPa 0,0 l/m 0 min 0 min 54 W/m 12,9 km/h (3 Bft) 97,87 %
25.02.2023 08:40 3,5 C 3,3 C 0,6 C 90 % 1008,6 hPa 0,0 l/m 0 min 0 min 64 W/m 12,9 km/h (3 Bft) 97,87 %
25.02.2023 08:42 3,6 C 3,3 C 0,6 C 90 % 1008,7 hPa 0,0 l/m 0 min 0 min 86 W/m 16,1 km/h (3 Bft) 95,74 %
25.02.2023 08:44 3,6 C 3,9 C 0,6 C 90 % 1008,6 hPa 0,0 l/m 2 min 0 min 92 W/m 12,9 km/h (3 Bft) 97,87 %
25.02.2023 08:46 3,6 C 3,9 C 0,6 C 90 % 1008,6 hPa 0,0 l/m 0 min 0 min 79 W/m 9,7 km/h (2 Bft) 95,65 %
25.02.2023 08:48 3,7 C 3,9 C 0,6 C 90 % 1008,7 hPa 0,0 l/m 0 min 0 min 59 W/m 6,4 km/h (2 Bft) 95,74 %
25.02.2023 08:50 3,7 C 3,9 C 0,6 C 90 % 1008,7 hPa 0,0 l/m 0 min 0 min 54 W/m 6,4 km/h (2 Bft) 89,36 %
25.02.2023 08:52 3,7 C 3,3 C 0,6 C 90 % 1008,7 hPa 0,0 l/m 0 min 0 min 53 W/m 19,3 km/h (3 Bft) 93,62 %
25.02.2023 08:54 3,7 C 3,3 C 0,6 C 90 % 1008,7 hPa 0,0 l/m 0 min 0 min 51 W/m 12,9 km/h (3 Bft) 95,74 %
25.02.2023 08:56 3,7 C 3,3 C 0,6 C 90 % 1008,7 hPa 0,0 l/m 0 min 0 min 53 W/m 12,9 km/h (3 Bft) 93,62 %
25.02.2023 08:58 3,7 C 3,3 C 0,6 C 90 % 1008,8 hPa 0,0 l/m 0 min 0 min 57 W/m 12,9 km/h (3 Bft) 95,74 %
25.02.2023 09:00 3,7 C 3,3 C 0,6 C 90 % 1008,8 hPa 0,0 l/m 0 min 0 min 67 W/m 9,7 km/h (2 Bft) 93,48 %
25.02.2023 09:02 3,7 C 3,3 C 0,6 C 90 % 1008,8 hPa 0,0 l/m 0 min 0 min 80 W/m 12,9 km/h (3 Bft) 91,49 %
25.02.2023 09:04 3,8 C 3,9 C 1,1 C 90 % 1008,8 hPa 0,0 l/m 0 min 0 min 85 W/m 12,9 km/h (3 Bft) 97,87 %
25.02.2023 09:06 3,8 C 3,9 C 1,1 C 90 % 1008,9 hPa 0,0 l/m 0 min 0 min 79 W/m 12,9 km/h (3 Bft) 91,49 %
25.02.2023 09:08 3,8 C 3,9 C 1,1 C 90 % 1008,9 hPa 0,0 l/m 0 min 0 min 80 W/m 12,9 km/h (3 Bft) 91,49 %
25.02.2023 09:10 3,8 C 3,9 C 1,1 C 90 % 1008,9 hPa 0,0 l/m 0 min 0 min 91 W/m 16,1 km/h (3 Bft) 97,87 %
25.02.2023 09:12 3,8 C 3,9 C 1,1 C 90 % 1008,8 hPa 0,0 l/m 0 min 0 min 98 W/m 9,7 km/h (2 Bft) 97,83 %
25.02.2023 09:14 3,8 C 3,9 C 1,1 C 90 % 1008,9 hPa 0,0 l/m 0 min 0 min 105 W/m 9,7 km/h (2 Bft) 93,62 %
25.02.2023 09:16 3,8 C 3,9 C 1,1 C 90 % 1008,9 hPa 0,0 l/m 0 min 0 min 108 W/m 12,9 km/h (3 Bft) 97,87 %
25.02.2023 09:18 3,9 C 3,9 C 1,1 C 90 % 1008,9 hPa 0,0 l/m 0 min 0 min 106 W/m 12,9 km/h (3 Bft) 97,87 %
25.02.2023 09:20 3,9 C 3,9 C 1,1 C 90 % 1009,0 hPa 0,0 l/m 0 min 0 min 106 W/m 19,3 km/h (3 Bft) 91,49 %
25.02.2023 09:22 3,9 C 3,9 C 1,1 C 90 % 1008,9 hPa 0,0 l/m 0 min 0 min 99 W/m 12,9 km/h (3 Bft) 97,87 %
25.02.2023 09:24 3,9 C 4,4 C 1,1 C 90 % 1008,9 hPa 0,0 l/m 0 min 0 min 102 W/m 12,9 km/h (3 Bft) 97,87 %
25.02.2023 09:26 4,0 C 4,4 C 1,1 C 90 % 1009,0 hPa 0,0 l/m 0 min 0 min 104 W/m 12,9 km/h (3 Bft) 93,48 %
25.02.2023 09:28 4,0 C 4,4 C 1,1 C 90 % 1009,0 hPa 0,0 l/m 0 min 0 min 95 W/m 16,1 km/h (3 Bft) 97,87 %
25.02.2023 09:30 4,1 C 3,9 C 1,1 C 90 % 1009,0 hPa 0,0 l/m 0 min 0 min 87 W/m 25,7 km/h (4 Bft) 97,87 %
25.02.2023 09:32 4,1 C 4,4 C 1,1 C 90 % 1009,0 hPa 0,0 l/m 0 min 0 min 106 W/m 29,0 km/h (5 Bft) 97,87 %
25.02.2023 09:34 4,1 C 4,4 C 1,1 C 90 % 1009,0 hPa 0,0 l/m 0 min 0 min 119 W/m 22,5 km/h (4 Bft) 95,74 %
25.02.2023 09:36 4,1 C 4,4 C 1,1 C 90 % 1009,0 hPa 0,0 l/m 0 min 0 min 92 W/m 29,0 km/h (5 Bft) 97,87 %
25.02.2023 09:38 4,1 C 4,4 C 1,1 C 89 % 1009,1 hPa 0,0 l/m 0 min 0 min 91 W/m 19,3 km/h (3 Bft) 95,65 %
25.02.2023 09:40 4,2 C 4,4 C 1,1 C 89 % 1009,1 hPa 0,0 l/m 0 min 0 min 88 W/m 25,7 km/h (4 Bft) 97,87 %
25.02.2023 09:42 4,2 C 4,4 C 1,1 C 89 % 1009,1 hPa 0,0 l/m 0 min 0 min 96 W/m 22,5 km/h (4 Bft) 97,87 %
25.02.2023 09:44 4,2 C 4,4 C 1,1 C 89 % 1009,1 hPa 0,0 l/m 0 min 0 min 80 W/m 25,7 km/h (4 Bft) 95,74 %
25.02.2023 09:46 4,2 C 4,4 C 1,1 C 89 % 1009,1 hPa 0,0 l/m 0 min 0 min 76 W/m 16,1 km/h (3 Bft) 97,87 %
25.02.2023 09:48 4,3 C 4,4 C 1,1 C 89 % 1009,2 hPa 0,0 l/m 0 min 0 min 84 W/m 16,1 km/h (3 Bft) 97,87 %
25.02.2023 09:50 4,3 C 4,4 C 1,1 C 89 % 1009,2 hPa 0,0 l/m 0 min 0 min 93 W/m 19,3 km/h (3 Bft) 97,83 %
25.02.2023 09:52 4,3 C 4,4 C 1,1 C 89 % 1009,2 hPa 0,0 l/m 0 min 0 min 101 W/m 19,3 km/h (3 Bft) 97,87 %
25.02.2023 09:54 4,3 C 4,4 C 1,7 C 89 % 1009,2 hPa 0,0 l/m 0 min 0 min 121 W/m 19,3 km/h (3 Bft) 97,87 %
25.02.2023 09:56 4,3 C 4,4 C 1,7 C 89 % 1009,2 hPa 0,0 l/m 0 min 0 min 135 W/m 22,5 km/h (4 Bft) 97,87 %
25.02.2023 09:58 4,3 C 4,4 C 1,7 C 89 % 1009,2 hPa 0,0 l/m 0 min 0 min 134 W/m 16,1 km/h (3 Bft) 97,87 %
25.02.2023 10:00 4,4 C 4,4 C 1,7 C 89 % 1009,2 hPa 0,0 l/m 0 min 0 min 107 W/m 19,3 km/h (3 Bft) 97,87 %
25.02.2023 10:02 4,4 C 4,4 C 1,7 C 89 % 1009,2 hPa 0,0 l/m 0 min 0 min 113 W/m 25,7 km/h (4 Bft) 97,87 %
25.02.2023 10:04 4,4 C 4,4 C 1,7 C 89 % 1009,2 hPa 0,0 l/m 0 min 0 min 119 W/m 16,1 km/h (3 Bft) 95,65 %
25.02.2023 10:06 4,4 C 5,0 C 1,7 C 89 % 1009,2 hPa 0,0 l/m 0 min 0 min 130 W/m 19,3 km/h (3 Bft) 97,87 %
25.02.2023 10:08 4,4 C 5,0 C 1,7 C 89 % 1009,1 hPa 0,0 l/m 0 min 0 min 123 W/m 35,4 km/h (5 Bft) 100,00 %
25.02.2023 10:10 4,4 C 5,6 C 1,7 C 89 % 1009,1 hPa 0,0 l/m 0 min 0 min 172 W/m 29,0 km/h (5 Bft) 100,00 %
25.02.2023 10:12 4,6 C 6,1 C 1,7 C 89 % 1009,1 hPa 0,0 l/m 2 min 0 min 209 W/m 29,0 km/h (5 Bft) 100,00 %
25.02.2023 10:14 4,6 C 6,1 C 2,2 C 89 % 1009,2 hPa 0,0 l/m 0 min 0 min 143 W/m 16,1 km/h (3 Bft) 97,87 %
25.02.2023 10:16 4,7 C 6,1 C 2,2 C 89 % 1009,2 hPa 0,0 l/m 2 min 0 min 186 W/m 22,5 km/h (4 Bft) 100,00 %
25.02.2023 10:18 4,7 C 6,7 C 2,2 C 89 % 1009,2 hPa 0,0 l/m 2 min 0 min 234 W/m 25,7 km/h (4 Bft) 97,83 %
25.02.2023 10:20 4,8 C 7,8 C 2,2 C 89 % 1009,3 hPa 0,0 l/m 2 min 0 min 318 W/m 25,7 km/h (4 Bft) 97,87 %
25.02.2023 10:22 4,9 C 7,8 C 2,2 C 88 % 1009,3 hPa 0,0 l/m 2 min 0 min 297 W/m 22,5 km/h (4 Bft) 97,87 %
25.02.2023 10:24 5,1 C 7,8 C 2,8 C 89 % 1009,4 hPa 0,0 l/m 2 min 0 min 196 W/m 19,3 km/h (3 Bft) 100,00 %
25.02.2023 10:26 5,1 C 7,8 C 2,8 C 88 % 1009,4 hPa 0,0 l/m 2 min 0 min 276 W/m 16,1 km/h (3 Bft) 100,00 %
25.02.2023 10:28 5,2 C 7,8 C 2,8 C 88 % 1009,4 hPa 0,0 l/m 2 min 0 min 265 W/m 25,7 km/h (4 Bft) 97,87 %
25.02.2023 10:30 5,2 C 7,2 C 2,8 C 88 % 1009,4 hPa 0,0 l/m 2 min 0 min 235 W/m 32,2 km/h (5 Bft) 100,00 %
25.02.2023 10:32 5,3 C 6,7 C 2,8 C 87 % 1009,4 hPa 0,0 l/m 0 min 0 min 139 W/m 16,1 km/h (3 Bft) 97,87 %
25.02.2023 10:34 5,3 C 6,1 C 2,8 C 87 % 1009,5 hPa 0,0 l/m 0 min 0 min 157 W/m 22,5 km/h (4 Bft) 97,87 %
25.02.2023 10:36 5,3 C 6,1 C 2,2 C 87 % 1009,5 hPa 0,0 l/m 0 min 0 min 158 W/m 19,3 km/h (3 Bft) 100,00 %
25.02.2023 10:38 5,4 C 6,1 C 2,2 C 87 % 1009,5 hPa 0,0 l/m 0 min 0 min 145 W/m 12,9 km/h (3 Bft) 97,87 %
25.02.2023 10:40 5,3 C 5,6 C 2,2 C 87 % 1009,5 hPa 0,0 l/m 0 min 0 min 134 W/m 19,3 km/h (3 Bft) 100,00 %
25.02.2023 10:42 5,3 C 5,6 C 2,2 C 87 % 1009,5 hPa 0,0 l/m 0 min 0 min 141 W/m 22,5 km/h (4 Bft) 93,62 %
25.02.2023 10:44 5,3 C 5,6 C 2,2 C 87 % 1009,5 hPa 0,0 l/m 0 min 0 min 131 W/m 16,1 km/h (3 Bft) 97,83 %
25.02.2023 10:46 5,3 C 5,6 C 2,2 C 87 % 1009,5 hPa 0,0 l/m 0 min 0 min 114 W/m 19,3 km/h (3 Bft) 95,74 %
25.02.2023 10:48 5,3 C 5,6 C 1,7 C 87 % 1009,5 hPa 0,0 l/m 0 min 0 min 110 W/m 12,9 km/h (3 Bft) 97,87 %
25.02.2023 10:50 5,3 C 5,6 C 1,7 C 87 % 1009,5 hPa 0,0 l/m 0 min 0 min 120 W/m 9,7 km/h (2 Bft) 97,87 %
25.02.2023 10:52 5,3 C 5,6 C 1,7 C 88 % 1009,7 hPa 0,0 l/m 0 min 0 min 147 W/m 12,9 km/h (3 Bft) 97,87 %
25.02.2023 10:54 5,3 C 5,6 C 1,7 C 88 % 1009,7 hPa 0,0 l/m 0 min 0 min 145 W/m 22,5 km/h (4 Bft) 97,87 %
25.02.2023 10:56 5,3 C 5,6 C 1,7 C 88 % 1009,7 hPa 0,0 l/m 0 min 0 min 129 W/m 22,5 km/h (4 Bft) 97,83 %
25.02.2023 10:58 5,3 C 5,6 C 1,7 C 88 % 1009,8 hPa 0,0 l/m 0 min 0 min 144 W/m 16,1 km/h (3 Bft) 97,87 %
25.02.2023 11:00 5,3 C 5,6 C 2,2 C 88 % 1009,8 hPa 0,0 l/m 0 min 0 min 160 W/m 22,5 km/h (4 Bft) 97,87 %
25.02.2023 11:02 5,3 C 5,6 C 2,2 C 89 % 1009,8 hPa 0,0 l/m 0 min 0 min 165 W/m 19,3 km/h (3 Bft) 97,87 %
25.02.2023 11:04 5,3 C 5,6 C 2,2 C 88 % 1009,9 hPa 0,0 l/m 0 min 2 min 104 W/m 19,3 km/h (3 Bft) 97,87 %
25.02.2023 11:06 5,2 C 5,0 C 1,7 C 88 % 1009,8 hPa 0,0 l/m 0 min 2 min 67 W/m 19,3 km/h (3 Bft) 95,74 %
25.02.2023 11:08 5,1 C 4,4 C 1,7 C 88 % 1009,9 hPa 0,0 l/m 0 min 2 min 83 W/m 25,7 km/h (4 Bft) 95,65 %
25.02.2023 11:10 5,1 C 4,4 C 1,1 C 88 % 1009,9 hPa 0,0 l/m 0 min 2 min 78 W/m 19,3 km/h (3 Bft) 93,62 %
25.02.2023 11:12 4,9 C 4,4 C 1,1 C 88 % 1009,9 hPa 0,0 l/m 0 min 2 min 74 W/m 16,1 km/h (3 Bft) 95,74 %
25.02.2023 11:14 4,9 C 4,4 C 1,1 C 89 % 1010,0 hPa 0,0 l/m 0 min 2 min 74 W/m 19,3 km/h (3 Bft) 91,49 %
25.02.2023 11:16 4,8 C 4,4 C 1,1 C 89 % 1010,0 hPa 0,0 l/m 0 min 0 min 90 W/m 19,3 km/h (3 Bft) 93,62 %
25.02.2023 11:18 4,8 C 5,0 C 1,7 C 89 % 1010,0 hPa 0,0 l/m 0 min 0 min 124 W/m 19,3 km/h (3 Bft) 95,74 %
25.02.2023 11:20 4,8 C 5,0 C 1,7 C 89 % 1010,0 hPa 0,0 l/m 0 min 0 min 129 W/m 22,5 km/h (4 Bft) 97,87 %
25.02.2023 11:22 4,8 C 5,0 C 1,7 C 90 % 1010,0 hPa 0,0 l/m 0 min 0 min 116 W/m 12,9 km/h (3 Bft) 97,83 %
25.02.2023 11:24 4,8 C 5,0 C 1,7 C 90 % 1010,1 hPa 0,0 l/m 0 min 2 min 104 W/m 16,1 km/h (3 Bft) 97,87 %
25.02.2023 11:26 4,8 C 5,0 C 1,7 C 90 % 1010,1 hPa 0,0 l/m 0 min 2 min 118 W/m 16,1 km/h (3 Bft) 95,74 %
25.02.2023 11:28 4,9 C 5,0 C 1,7 C 90 % 1010,0 hPa 0,0 l/m 0 min 2 min 155 W/m 25,7 km/h (4 Bft) 97,87 %
25.02.2023 11:30 4,9 C 5,6 C 1,7 C 90 % 1010,1 hPa 0,0 l/m 0 min 0 min 149 W/m 16,1 km/h (3 Bft) 97,87 %
25.02.2023 11:32 4,9 C 5,6 C 2,2 C 90 % 1010,1 hPa 0,0 l/m 0 min 0 min 188 W/m 16,1 km/h (3 Bft) 97,87 %
25.02.2023 11:34 5,0 C 5,6 C 2,2 C 90 % 1010,1 hPa 0,0 l/m 0 min 0 min 205 W/m 12,9 km/h (3 Bft) 97,87 %
25.02.2023 11:36 5,1 C 6,1 C 2,2 C 90 % 1010,1 hPa 0,0 l/m 0 min 2 min 216 W/m 16,1 km/h (3 Bft) 97,83 %
25.02.2023 11:38 5,1 C 6,1 C 2,2 C 90 % 1010,2 hPa 0,0 l/m 2 min 0 min 248 W/m 16,1 km/h (3 Bft) 95,74 %
25.02.2023 11:40 5,2 C 6,7 C 2,2 C 90 % 1010,2 hPa 0,0 l/m 0 min 0 min 199 W/m 16,1 km/h (3 Bft) 97,87 %
25.02.2023 11:42 5,3 C 6,7 C 2,8 C 90 % 1010,1 hPa 0,0 l/m 0 min 0 min 176 W/m 22,5 km/h (4 Bft) 97,87 %
25.02.2023 11:44 5,3 C 6,7 C 2,8 C 90 % 1010,2 hPa 0,0 l/m 0 min 2 min 188 W/m 19,3 km/h (3 Bft) 95,74 %
25.02.2023 11:46 5,3 C 6,7 C 2,8 C 89 % 1010,3 hPa 0,0 l/m 2 min 0 min 256 W/m 22,5 km/h (4 Bft) 93,62 %
25.02.2023 11:48 5,4 C 7,2 C 2,8 C 89 % 1010,3 hPa 0,0 l/m 2 min 0 min 284 W/m 16,1 km/h (3 Bft) 97,83 %
25.02.2023 11:50 5,5 C 7,2 C 2,8 C 89 % 1010,4 hPa 0,0 l/m 2 min 0 min 254 W/m 29,0 km/h (5 Bft) 97,87 %
25.02.2023 11:52 5,6 C 7,2 C 2,8 C 88 % 1010,4 hPa 0,0 l/m 0 min 0 min 208 W/m 25,7 km/h (4 Bft) 97,87 %
25.02.2023 11:54 5,6 C 7,2 C 2,8 C 88 % 1010,5 hPa 0,0 l/m 0 min 0 min 206 W/m 19,3 km/h (3 Bft) 100,00 %
25.02.2023 11:56 5,6 C 7,2 C 2,8 C 87 % 1010,5 hPa 0,0 l/m 0 min 0 min 184 W/m 12,9 km/h (3 Bft) 97,87 %
25.02.2023 11:58 5,6 C 6,7 C 2,8 C 87 % 1010,5 hPa 0,0 l/m 0 min 0 min 171 W/m 16,1 km/h (3 Bft) 100,00 %
25.02.2023 12:00 5,6 C 6,7 C 2,8 C 86 % 1010,4 hPa 0,0 l/m 0 min 0 min 163 W/m 19,3 km/h (3 Bft) 97,83 %
25.02.2023 12:02 5,6 C 6,1 C 2,8 C 86 % 1010,5 hPa 0,0 l/m 0 min 0 min 152 W/m 22,5 km/h (4 Bft) 100,00 %
25.02.2023 12:04 5,6 C 5,6 C 2,8 C 85 % 1010,5 hPa 0,0 l/m 0 min 0 min 117 W/m 22,5 km/h (4 Bft) 97,87 %
25.02.2023 12:07 5,6 C 5,6 C 2,2 C 85 % 1010,5 hPa 0,0 l/m 0 min 0 min 108 W/m 22,5 km/h (4 Bft) 100,00 %
25.02.2023 12:08 5,5 C 5,6 C 2,2 C 85 % 1010,5 hPa 0,0 l/m 0 min 0 min 157 W/m 12,9 km/h (3 Bft) 91,67 %
25.02.2023 12:12 5,6 C 6,1 C 2,2 C 85 % 1010,4 hPa 0,0 l/m 0 min 0 min 154 W/m 12,9 km/h (3 Bft) 98,18 %
25.02.2023 12:14 5,6 C 6,1 C 2,2 C 85 % 1010,5 hPa 0,0 l/m 0 min 0 min 179 W/m 25,7 km/h (4 Bft) 95,65 %
25.02.2023 12:16 5,6 C 6,1 C 2,2 C 84 % 1010,5 hPa 0,0 l/m 0 min 0 min 172 W/m 22,5 km/h (4 Bft) 100,00 %
25.02.2023 12:18 5,6 C 6,1 C 2,2 C 85 % 1010,5 hPa 0,0 l/m 0 min 0 min 196 W/m 22,5 km/h (4 Bft) 100,00 %
25.02.2023 12:20 5,6 C 6,1 C 2,2 C 84 % 1010,5 hPa 0,0 l/m 0 min 0 min 223 W/m 25,7 km/h (4 Bft) 97,87 %
25.02.2023 12:22 5,5 C 6,1 C 2,2 C 84 % 1010,5 hPa 0,0 l/m 0 min 0 min 193 W/m 19,3 km/h (3 Bft) 97,87 %
25.02.2023 12:24 5,4 C 6,1 C 2,2 C 83 % 1010,5 hPa 0,0 l/m 0 min 0 min 130 W/m 25,7 km/h (4 Bft) 100,00 %
25.02.2023 12:26 5,4 C 5,6 C 2,2 C 83 % 1010,5 hPa 0,0 l/m 0 min 0 min 85 W/m 16,1 km/h (3 Bft) 95,74 %
25.02.2023 12:28 5,3 C 5,6 C 1,7 C 82 % 1010,5 hPa 0,0 l/m 0 min 0 min 69 W/m 16,1 km/h (3 Bft) 97,83 %
25.02.2023 12:30 5,2 C 5,6 C 1,7 C 82 % 1010,5 hPa 0,0 l/m 0 min 0 min 63 W/m 19,3 km/h (3 Bft) 97,87 %
25.02.2023 12:32 5,1 C 6,7 C 2,8 C 82 % 1010,6 hPa 0,0 l/m 0 min 0 min 159 W/m 19,3 km/h (3 Bft) 95,74 %
25.02.2023 12:34 5,2 C 7,8 C 3,3 C 82 % 1010,6 hPa 0,0 l/m 2 min 0 min 313 W/m 16,1 km/h (3 Bft) 97,87 %
25.02.2023 12:36 5,3 C 7,8 C 3,9 C 83 % 1010,6 hPa 0,0 l/m 2 min 0 min 256 W/m 16,1 km/h (3 Bft) 93,62 %
25.02.2023 12:38 5,4 C 7,8 C 3,9 C 82 % 1010,6 hPa 0,0 l/m 2 min 0 min 368 W/m 19,3 km/h (3 Bft) 95,74 %
25.02.2023 12:40 5,6 C 7,8 C 3,9 C 82 % 1010,5 hPa 0,0 l/m 2 min 0 min 372 W/m 22,5 km/h (4 Bft) 97,83 %
25.02.2023 12:42 5,7 C 8,3 C 3,3 C 81 % 1010,6 hPa 0,0 l/m 2 min 0 min 318 W/m 22,5 km/h (4 Bft) 95,74 %
25.02.2023 12:44 5,8 C 7,8 C 3,3 C 80 % 1010,6 hPa 0,0 l/m 0 min 0 min 214 W/m 41,8 km/h (6 Bft) 89,36 %
25.02.2023 12:46 5,9 C 8,9 C 3,3 C 79 % 1010,6 hPa 0,0 l/m 2 min 0 min 288 W/m 16,1 km/h (3 Bft) 95,74 %
25.02.2023 12:48 6,1 C 9,4 C 3,3 C 78 % 1010,7 hPa 0,0 l/m 2 min 0 min 437 W/m 32,2 km/h (5 Bft) 95,74 %
25.02.2023 12:50 6,2 C 9,4 C 3,3 C 77 % 1010,6 hPa 0,0 l/m 2 min 0 min 499 W/m 16,1 km/h (3 Bft) 95,74 %
25.02.2023 12:52 6,3 C 10,0 C 3,3 C 77 % 1010,6 hPa 0,0 l/m 2 min 0 min 594 W/m 16,1 km/h (3 Bft) 93,62 %
25.02.2023 12:54 6,5 C 10,6 C 3,3 C 77 % 1010,6 hPa 0,0 l/m 2 min 0 min 596 W/m 12,9 km/h (3 Bft) 93,48 %
25.02.2023 12:56 6,7 C 12,2 C 3,9 C 77 % 1010,5 hPa 0,0 l/m 2 min 0 min 698 W/m 16,1 km/h (3 Bft) 93,62 %
25.02.2023 12:58 6,9 C 13,3 C 4,4 C 77 % 1010,5 hPa 0,0 l/m 2 min 0 min 509 W/m 19,3 km/h (3 Bft) 95,74 %
25.02.2023 13:00 7,1 C 11,1 C 4,4 C 76 % 1010,5 hPa 0,0 l/m 2 min 0 min 452 W/m 22,5 km/h (4 Bft) 95,74 %
25.02.2023 13:02 7,1 C 8,9 C 3,9 C 75 % 1010,5 hPa 0,0 l/m 0 min 0 min 123 W/m 19,3 km/h (3 Bft) 95,74 %
25.02.2023 13:04 6,9 C 7,8 C 3,3 C 74 % 1010,6 hPa 0,0 l/m 0 min 0 min 99 W/m 19,3 km/h (3 Bft) 95,74 %
25.02.2023 13:06 6,8 C 6,7 C 3,3 C 74 % 1010,6 hPa 0,0 l/m 0 min 0 min 68 W/m 19,3 km/h (3 Bft) 94,83 %
25.02.2023 13:08 6,7 C 6,1 C 2,8 C 75 % 1010,6 hPa 0,0 l/m 0 min 0 min 74 W/m 22,5 km/h (4 Bft) 94,29 %
25.02.2023 13:10 6,5 C 7,8 C 2,8 C 76 % 1010,6 hPa 0,0 l/m 0 min 0 min 104 W/m 25,7 km/h (4 Bft) 95,74 %
25.02.2023 13:12 6,4 C 10,6 C 2,8 C 77 % 1010,6 hPa 0,0 l/m 2 min 0 min 581 W/m 12,9 km/h (3 Bft) 95,74 %
25.02.2023 13:14 6,4 C 13,3 C 2,8 C 78 % 1010,6 hPa 0,0 l/m 2 min 0 min 577 W/m 12,9 km/h (3 Bft) 97,87 %
25.02.2023 13:16 6,5 C 13,9 C 2,8 C 78 % 1010,6 hPa 0,0 l/m 2 min 0 min 570 W/m 22,5 km/h (4 Bft) 100,00 %
25.02.2023 13:18 6,6 C 15,0 C 3,3 C 77 % 1010,6 hPa 0,0 l/m 2 min 0 min 554 W/m 19,3 km/h (3 Bft) 100,00 %
25.02.2023 13:20 6,7 C 16,1 C 3,3 C 77 % 1010,6 hPa 0,0 l/m 2 min 0 min 550 W/m 16,1 km/h (3 Bft) 97,83 %
25.02.2023 13:22 6,8 C 16,7 C 3,3 C 77 % 1010,6 hPa 0,0 l/m 2 min 0 min 557 W/m 25,7 km/h (4 Bft) 100,00 %
25.02.2023 13:24 6,9 C 16,7 C 3,3 C 77 % 1010,5 hPa 0,0 l/m 2 min 0 min 560 W/m 22,5 km/h (4 Bft) 100,00 %
25.02.2023 13:26 7,1 C 16,1 C 3,9 C 75 % 1010,5 hPa 0,0 l/m 2 min 0 min 555 W/m 16,1 km/h (3 Bft) 100,00 %
25.02.2023 13:28 7,3 C 17,2 C 3,9 C 74 % 1010,5 hPa 0,0 l/m 2 min 0 min 550 W/m 16,1 km/h (3 Bft) 100,00 %
25.02.2023 13:30 7,6 C 17,2 C 4,4 C 74 % 1010,5 hPa 0,0 l/m 2 min 0 min 568 W/m 19,3 km/h (3 Bft) 100,00 %
25.02.2023 13:32 7,8 C 16,1 C 4,4 C 72 % 1010,5 hPa 0,0 l/m 2 min 0 min 571 W/m 32,2 km/h (5 Bft) 100,00 %
25.02.2023 13:34 7,9 C 15,6 C 4,4 C 70 % 1010,4 hPa 0,0 l/m 2 min 0 min 577 W/m 32,2 km/h (5 Bft) 100,00 %
25.02.2023 13:36 8,1 C 14,4 C 4,4 C 69 % 1010,5 hPa 0,0 l/m 2 min 0 min 612 W/m 29,0 km/h (5 Bft) 100,00 %
25.02.2023 13:38 8,2 C 12,8 C 4,4 C 68 % 1010,5 hPa 0,0 l/m 2 min 0 min 481 W/m 19,3 km/h (3 Bft) 100,00 %
25.02.2023 13:40 8,2 C 13,3 C 4,4 C 68 % 1010,5 hPa 0,0 l/m 0 min 0 min 171 W/m 19,3 km/h (3 Bft) 100,00 %
25.02.2023 13:42 8,3 C 13,3 C 5,0 C 68 % 1010,5 hPa 0,0 l/m 2 min 0 min 476 W/m 25,7 km/h (4 Bft) 100,00 %
25.02.2023 13:44 8,5 C 13,9 C 5,0 C 67 % 1010,5 hPa 0,0 l/m 2 min 0 min 490 W/m 25,7 km/h (4 Bft) 100,00 %
25.02.2023 13:46 8,6 C 11,7 C 5,0 C 67 % 1010,5 hPa 0,0 l/m 2 min 0 min 482 W/m 22,5 km/h (4 Bft) 100,00 %
25.02.2023 13:48 8,5 C 10,6 C 4,4 C 67 % 1010,5 hPa 0,0 l/m 0 min 0 min 125 W/m 16,1 km/h (3 Bft) 100,00 %
25.02.2023 13:50 8,4 C 9,4 C 3,9 C 66 % 1010,6 hPa 0,0 l/m 0 min 0 min 111 W/m 22,5 km/h (4 Bft) 97,87 %
25.02.2023 13:52 8,2 C 8,3 C 3,9 C 67 % 1010,7 hPa 0,0 l/m 0 min 0 min 140 W/m 12,9 km/h (3 Bft) 100,00 %
25.02.2023 13:54 8,1 C 8,9 C 3,3 C 67 % 1010,6 hPa 0,0 l/m 0 min 0 min 232 W/m 29,0 km/h (5 Bft) 100,00 %
25.02.2023 13:56 7,9 C 10,6 C 3,9 C 66 % 1010,6 hPa 0,0 l/m 2 min 0 min 588 W/m 32,2 km/h (5 Bft) 100,00 %
25.02.2023 13:58 7,9 C 10,6 C 3,9 C 67 % 1010,6 hPa 0,0 l/m 2 min 0 min 491 W/m 29,0 km/h (5 Bft) 100,00 %
25.02.2023 14:00 7,9 C 10,6 C 3,9 C 67 % 1010,6 hPa 0,0 l/m 0 min 0 min 227 W/m 22,5 km/h (4 Bft) 97,87 %
25.02.2023 14:02 7,9 C 10,0 C 3,9 C 66 % 1010,7 hPa 0,0 l/m 0 min 0 min 168 W/m 22,5 km/h (4 Bft) 100,00 %
25.02.2023 14:04 7,8 C 8,9 C 3,3 C 66 % 1010,7 hPa 0,0 l/m 0 min 0 min 145 W/m 32,2 km/h (5 Bft) 97,87 %
25.02.2023 14:06 7,6 C 7,8 C 3,3 C 65 % 1010,7 hPa 0,0 l/m 0 min 0 min 124 W/m 25,7 km/h (4 Bft) 96,61 %
25.02.2023 14:08 7,4 C 7,8 C 2,8 C 66 % 1010,7 hPa 0,0 l/m 0 min 0 min 141 W/m 16,1 km/h (3 Bft) 94,29 %
25.02.2023 14:10 7,3 C 7,8 C 2,8 C 67 % 1010,7 hPa 0,0 l/m 0 min 0 min 171 W/m 16,1 km/h (3 Bft) 97,87 %
25.02.2023 14:12 7,2 C 7,8 C 3,3 C 67 % 1010,8 hPa 0,0 l/m 0 min 0 min 176 W/m 22,5 km/h (4 Bft) 97,83 %
25.02.2023 14:14 7,1 C 7,2 C 2,8 C 66 % 1010,8 hPa 0,0 l/m 0 min 0 min 154 W/m 35,4 km/h (5 Bft) 97,87 %
25.02.2023 14:16 7,0 C 7,2 C 2,8 C 66 % 1010,9 hPa 0,0 l/m 0 min 0 min 115 W/m 25,7 km/h (4 Bft) 93,62 %
25.02.2023 14:18 6,9 C 7,2 C 2,8 C 66 % 1010,9 hPa 0,0 l/m 0 min 0 min 93 W/m 29,0 km/h (5 Bft) 93,62 %
25.02.2023 14:20 6,8 C 6,7 C 2,8 C 66 % 1010,9 hPa 0,0 l/m 0 min 0 min 90 W/m 22,5 km/h (4 Bft) 91,49 %
25.02.2023 14:22 6,6 C 7,2 C 2,2 C 66 % 1010,9 hPa 0,0 l/m 0 min 0 min 120 W/m 16,1 km/h (3 Bft) 95,74 %
25.02.2023 14:24 6,6 C 9,4 C 2,8 C 67 % 1010,9 hPa 0,0 l/m 2 min 0 min 226 W/m 22,5 km/h (4 Bft) 93,48 %
25.02.2023 14:26 6,7 C 9,4 C 2,8 C 66 % 1010,9 hPa 0,0 l/m 2 min 0 min 480 W/m 29,0 km/h (5 Bft) 95,74 %
25.02.2023 14:28 6,8 C 9,4 C 2,8 C 66 % 1010,9 hPa 0,0 l/m 2 min 0 min 500 W/m 32,2 km/h (5 Bft) 51,22 %
25.02.2023 14:30 6,9 C 9,4 C 3,3 C 65 % 1010,9 hPa 0,0 l/m 2 min 0 min 510 W/m 25,7 km/h (4 Bft) 95,74 %
25.02.2023 14:32 7,1 C 10,0 C 3,3 C 63 % 1010,9 hPa 0,0 l/m 2 min 0 min 495 W/m 25,7 km/h (4 Bft) 97,87 %
25.02.2023 14:34 7,2 C 10,0 C 3,3 C 63 % 1011,1 hPa 0,0 l/m 2 min 0 min 477 W/m 32,2 km/h (5 Bft) 97,87 %
25.02.2023 14:36 7,3 C 10,0 C 3,3 C 62 % 1011,0 hPa 0,0 l/m 2 min 0 min 471 W/m 22,5 km/h (4 Bft) 97,87 %
25.02.2023 14:38 7,4 C 11,1 C 3,3 C 61 % 1011,1 hPa 0,0 l/m 2 min 0 min 469 W/m 22,5 km/h (4 Bft) 95,65 %
25.02.2023 14:40 7,5 C 11,7 C 3,3 C 61 % 1011,0 hPa 0,0 l/m 2 min 0 min 465 W/m 32,2 km/h (5 Bft) 95,74 %
25.02.2023 14:42 7,6 C 12,2 C 3,3 C 61 % 1011,0 hPa 0,0 l/m 2 min 0 min 469 W/m 19,3 km/h (3 Bft) 97,87 %
25.02.2023 14:44 7,7 C 12,2 C 3,3 C 60 % 1011,1 hPa 0,0 l/m 2 min 0 min 488 W/m 25,7 km/h (4 Bft) 97,87 %
25.02.2023 14:46 7,7 C 12,8 C 3,3 C 60 % 1011,0 hPa 0,0 l/m 2 min 0 min 505 W/m 19,3 km/h (3 Bft) 97,87 %
25.02.2023 14:48 7,7 C 11,1 C 3,3 C 60 % 1011,1 hPa 0,0 l/m 2 min 0 min 425 W/m 25,7 km/h (4 Bft) 95,74 %
25.02.2023 14:50 7,6 C 10,6 C 3,3 C 60 % 1011,1 hPa 0,0 l/m 0 min 0 min 161 W/m 25,7 km/h (4 Bft) 95,65 %
25.02.2023 14:52 7,6 C 9,4 C 3,3 C 60 % 1011,1 hPa 0,0 l/m 0 min 0 min 107 W/m 19,3 km/h (3 Bft) 95,74 %
25.02.2023 14:54 7,4 C 8,3 C 2,8 C 61 % 1011,1 hPa 0,0 l/m 0 min 0 min 102 W/m 19,3 km/h (3 Bft) 93,62 %
25.02.2023 14:56 7,3 C 7,2 C 2,8 C 60 % 1011,2 hPa 0,0 l/m 0 min 0 min 111 W/m 25,7 km/h (4 Bft) 87,23 %
25.02.2023 14:58 7,1 C 7,8 C 2,8 C 60 % 1011,2 hPa 0,0 l/m 0 min 0 min 109 W/m 41,8 km/h (6 Bft) 97,87 %
25.02.2023 15:00 7,0 C 9,4 C 2,8 C 60 % 1011,2 hPa 0,0 l/m 2 min 0 min 361 W/m 29,0 km/h (5 Bft) 95,74 %
25.02.2023 15:02 6,9 C 8,9 C 2,8 C 60 % 1011,2 hPa 0,0 l/m 2 min 0 min 427 W/m 32,2 km/h (5 Bft) 93,62 %
25.02.2023 15:04 6,9 C 7,8 C 2,8 C 58 % 1011,2 hPa 0,0 l/m 2 min 0 min 418 W/m 35,4 km/h (5 Bft) 95,65 %
25.02.2023 15:06 6,8 C 8,3 C 2,8 C 58 % 1011,4 hPa 0,0 l/m 2 min 0 min 421 W/m 29,0 km/h (5 Bft) 94,92 %
25.02.2023 15:08 6,8 C 8,3 C 2,8 C 57 % 1011,4 hPa 0,0 l/m 2 min 0 min 395 W/m 25,7 km/h (4 Bft) 97,14 %
25.02.2023 15:10 6,8 C 7,8 C 2,8 C 57 % 1011,4 hPa 0,0 l/m 2 min 0 min 196 W/m 16,1 km/h (3 Bft) 97,87 %
25.02.2023 15:12 6,8 C 8,9 C 2,8 C 57 % 1011,4 hPa 0,0 l/m 2 min 0 min 318 W/m 29,0 km/h (5 Bft) 97,87 %
25.02.2023 15:14 6,8 C 9,4 C 2,8 C 58 % 1011,3 hPa 0,0 l/m 2 min 0 min 404 W/m 22,5 km/h (4 Bft) 97,87 %
25.02.2023 15:16 6,8 C 8,9 C 2,8 C 58 % 1011,4 hPa 0,0 l/m 2 min 0 min 395 W/m 25,7 km/h (4 Bft) 97,83 %
25.02.2023 15:18 6,8 C 8,9 C 2,8 C 58 % 1011,4 hPa 0,0 l/m 2 min 0 min 393 W/m 22,5 km/h (4 Bft) 97,87 %
25.02.2023 15:20 6,9 C 9,4 C 2,8 C 58 % 1011,4 hPa 0,0 l/m 2 min 0 min 394 W/m 22,5 km/h (4 Bft) 97,87 %
25.02.2023 15:22 6,9 C 9,4 C 2,8 C 58 % 1011,4 hPa 0,0 l/m 2 min 0 min 394 W/m 16,1 km/h (3 Bft) 95,74 %
25.02.2023 15:24 7,0 C 9,4 C 2,8 C 57 % 1011,4 hPa 0,0 l/m 2 min 0 min 395 W/m 22,5 km/h (4 Bft) 97,87 %
25.02.2023 15:26 6,9 C 8,3 C 2,8 C 57 % 1011,4 hPa 0,0 l/m 0 min 0 min 108 W/m 25,7 km/h (4 Bft) 95,74 %
25.02.2023 15:28 6,9 C 7,2 C 2,2 C 57 % 1011,4 hPa 0,0 l/m 0 min 0 min 85 W/m 22,5 km/h (4 Bft) 97,87 %
25.02.2023 15:30 6,8 C 7,2 C 2,2 C 57 % 1011,6 hPa 0,0 l/m 0 min 0 min 76 W/m 22,5 km/h (4 Bft) 97,83 %
25.02.2023 15:32 6,7 C 7,8 C 2,2 C 57 % 1011,5 hPa 0,0 l/m 2 min 0 min 357 W/m 29,0 km/h (5 Bft) 95,74 %
25.02.2023 15:34 6,7 C 8,3 C 2,2 C 57 % 1011,6 hPa 0,0 l/m 2 min 0 min 370 W/m 25,7 km/h (4 Bft) 97,87 %
25.02.2023 15:36 6,7 C 8,3 C 2,2 C 56 % 1011,5 hPa 0,0 l/m 2 min 0 min 357 W/m 25,7 km/h (4 Bft) 95,74 %
25.02.2023 15:38 6,7 C 8,3 C 2,2 C 55 % 1011,6 hPa 0,0 l/m 2 min 0 min 308 W/m 35,4 km/h (5 Bft) 93,62 %
25.02.2023 15:40 6,7 C 8,3 C 2,2 C 55 % 1011,6 hPa 0,0 l/m 2 min 0 min 333 W/m 22,5 km/h (4 Bft) 97,87 %
25.02.2023 15:42 6,7 C 8,3 C 2,2 C 55 % 1011,7 hPa 0,0 l/m 2 min 0 min 328 W/m 19,3 km/h (3 Bft) 97,83 %
25.02.2023 15:44 6,7 C 9,4 C 2,2 C 55 % 1011,7 hPa 0,0 l/m 2 min 0 min 332 W/m 38,6 km/h (5 Bft) 97,87 %
25.02.2023 15:46 6,7 C 8,9 C 2,2 C 54 % 1011,7 hPa 0,0 l/m 2 min 0 min 324 W/m 22,5 km/h (4 Bft) 97,87 %
25.02.2023 15:48 6,8 C 8,9 C 2,2 C 54 % 1011,8 hPa 0,0 l/m 2 min 0 min 323 W/m 16,1 km/h (3 Bft) 97,87 %
25.02.2023 15:50 6,8 C 9,4 C 1,7 C 54 % 1011,8 hPa 0,0 l/m 2 min 0 min 320 W/m 29,0 km/h (5 Bft) 97,87 %
25.02.2023 15:52 6,7 C 9,4 C 1,7 C 54 % 1011,8 hPa 0,0 l/m 2 min 0 min 315 W/m 22,5 km/h (4 Bft) 93,62 %
25.02.2023 15:54 6,7 C 9,4 C 1,7 C 55 % 1011,8 hPa 0,0 l/m 2 min 0 min 308 W/m 38,6 km/h (5 Bft) 95,65 %
25.02.2023 15:56 6,7 C 8,9 C 1,7 C 55 % 1011,8 hPa 0,0 l/m 2 min 0 min 301 W/m 25,7 km/h (4 Bft) 97,87 %
25.02.2023 15:58 6,6 C 8,3 C 1,7 C 56 % 1011,9 hPa 0,0 l/m 2 min 0 min 296 W/m 25,7 km/h (4 Bft) 97,87 %
25.02.2023 16:00 6,6 C 8,9 C 1,7 C 56 % 1011,9 hPa 0,0 l/m 2 min 0 min 290 W/m 22,5 km/h (4 Bft) 95,74 %
25.02.2023 16:02 6,6 C 8,3 C 1,7 C 56 % 1011,8 hPa 0,0 l/m 2 min 0 min 266 W/m 16,1 km/h (3 Bft) 97,87 %
25.02.2023 16:04 6,6 C 7,8 C 1,7 C 57 % 1011,9 hPa 0,0 l/m 2 min 0 min 176 W/m 9,7 km/h (2 Bft) 97,87 %
25.02.2023 16:06 6,6 C 7,2 C 1,7 C 57 % 1011,9 hPa 0,0 l/m 2 min 0 min 250 W/m 16,1 km/h (3 Bft) 96,55 %
25.02.2023 16:08 6,6 C 6,7 C 1,7 C 57 % 1012,0 hPa 0,0 l/m 2 min 0 min 268 W/m 16,1 km/h (3 Bft) 100,00 %
25.02.2023 16:10 6,6 C 6,7 C 1,7 C 58 % 1012,0 hPa 0,0 l/m 2 min 0 min 265 W/m 19,3 km/h (3 Bft) 95,74 %
25.02.2023 16:12 6,6 C 6,1 C 1,7 C 58 % 1012,0 hPa 0,0 l/m 2 min 0 min 260 W/m 19,3 km/h (3 Bft) 97,87 %
25.02.2023 16:14 6,6 C 6,1 C 1,7 C 58 % 1012,0 hPa 0,0 l/m 2 min 0 min 253 W/m 22,5 km/h (4 Bft) 97,87 %
25.02.2023 16:16 6,5 C 6,1 C 1,7 C 57 % 1012,0 hPa 0,0 l/m 2 min 0 min 242 W/m 29,0 km/h (5 Bft) 97,87 %
25.02.2023 16:18 6,5 C 6,1 C 1,7 C 57 % 1012,0 hPa 0,0 l/m 2 min 0 min 238 W/m 22,5 km/h (4 Bft) 97,87 %
25.02.2023 16:20 6,4 C 6,1 C 1,7 C 57 % 1012,0 hPa 0,0 l/m 2 min 0 min 227 W/m 12,9 km/h (3 Bft) 97,83 %
25.02.2023 16:22 6,3 C 5,6 C 1,7 C 58 % 1012,1 hPa 0,0 l/m 2 min 0 min 194 W/m 29,0 km/h (5 Bft) 97,87 %
25.02.2023 16:24 6,3 C 5,6 C 1,7 C 58 % 1012,1 hPa 0,0 l/m 2 min 0 min 218 W/m 32,2 km/h (5 Bft) 100,00 %
25.02.2023 16:26 6,1 C 5,6 C 1,1 C 58 % 1012,1 hPa 0,0 l/m 2 min 0 min 212 W/m 32,2 km/h (5 Bft) 97,87 %
25.02.2023 16:28 6,0 C 5,6 C 1,1 C 58 % 1012,1 hPa 0,0 l/m 2 min 0 min 195 W/m 35,4 km/h (5 Bft) 97,87 %
25.02.2023 16:30 5,9 C 5,6 C 1,1 C 58 % 1012,1 hPa 0,0 l/m 2 min 0 min 146 W/m 19,3 km/h (3 Bft) 100,00 %
25.02.2023 16:32 5,9 C 5,6 C 1,7 C 58 % 1012,0 hPa 0,0 l/m 2 min 0 min 189 W/m 25,7 km/h (4 Bft) 100,00 %
25.02.2023 16:34 5,9 C 5,6 C 1,7 C 59 % 1012,0 hPa 0,0 l/m 2 min 0 min 184 W/m 19,3 km/h (3 Bft) 100,00 %
25.02.2023 16:36 5,8 C 5,6 C 1,7 C 58 % 1012,1 hPa 0,0 l/m 0 min 0 min 105 W/m 22,5 km/h (4 Bft) 100,00 %
25.02.2023 16:38 5,8 C 5,6 C 1,1 C 58 % 1012,2 hPa 0,0 l/m 0 min 0 min 50 W/m 19,3 km/h (3 Bft) 100,00 %
25.02.2023 16:40 5,8 C 5,6 C 1,1 C 58 % 1012,2 hPa 0,0 l/m 0 min 0 min 39 W/m 29,0 km/h (5 Bft) 100,00 %
25.02.2023 16:42 5,7 C 5,0 C 1,1 C 58 % 1012,2 hPa 0,0 l/m 0 min 0 min 37 W/m 25,7 km/h (4 Bft) 97,87 %
25.02.2023 16:44 5,7 C 5,0 C 1,1 C 58 % 1012,2 hPa 0,0 l/m 0 min 0 min 37 W/m 25,7 km/h (4 Bft) 97,87 %
25.02.2023 16:46 5,6 C 5,0 C 1,1 C 58 % 1012,4 hPa 0,0 l/m 0 min 0 min 35 W/m 29,0 km/h (5 Bft) 97,83 %
25.02.2023 16:48 5,6 C 5,0 C 1,1 C 58 % 1012,4 hPa 0,0 l/m 0 min 0 min 34 W/m 32,2 km/h (5 Bft) 93,62 %
25.02.2023 16:50 5,5 C 5,0 C 1,1 C 57 % 1012,5 hPa 0,0 l/m 0 min 0 min 33 W/m 25,7 km/h (4 Bft) 97,87 %
25.02.2023 16:52 5,4 C 5,0 C 1,1 C 56 % 1012,4 hPa 0,0 l/m 0 min 0 min 32 W/m 35,4 km/h (5 Bft) 97,87 %
25.02.2023 16:54 5,4 C 5,0 C 1,1 C 56 % 1012,5 hPa 0,0 l/m 0 min 0 min 31 W/m 22,5 km/h (4 Bft) 97,87 %
25.02.2023 16:56 5,3 C 5,0 C 1,1 C 56 % 1012,5 hPa 0,0 l/m 0 min 0 min 30 W/m 22,5 km/h (4 Bft) 95,74 %
25.02.2023 16:58 5,3 C 5,0 C 1,1 C 55 % 1012,5 hPa 0,0 l/m 0 min 0 min 29 W/m 25,7 km/h (4 Bft) 97,83 %
25.02.2023 17:00 5,3 C 5,0 C 1,1 C 55 % 1012,6 hPa 0,0 l/m 0 min 0 min 28 W/m 19,3 km/h (3 Bft) 97,87 %
25.02.2023 17:02 5,2 C 4,4 C 0,6 C 55 % 1012,6 hPa 0,0 l/m 0 min 0 min 28 W/m 25,7 km/h (4 Bft) 97,87 %
25.02.2023 17:04 5,2 C 4,4 C 0,6 C 56 % 1012,7 hPa 0,0 l/m 0 min 0 min 28 W/m 25,7 km/h (4 Bft) 91,49 %
25.02.2023 17:06 5,2 C 4,4 C 0,6 C 56 % 1012,6 hPa 0,0 l/m 0 min 0 min 28 W/m 19,3 km/h (3 Bft) 98,31 %
25.02.2023 17:08 5,2 C 4,4 C 0,6 C 55 % 1012,7 hPa 0,0 l/m 0 min 0 min 26 W/m 19,3 km/h (3 Bft) 97,14 %
25.02.2023 17:10 5,1 C 4,4 C 0,6 C 55 % 1012,7 hPa 0,0 l/m 0 min 0 min 26 W/m 19,3 km/h (3 Bft) 95,74 %
25.02.2023 17:12 5,1 C 4,4 C 0,6 C 55 % 1012,7 hPa 0,0 l/m 0 min 0 min 26 W/m 35,4 km/h (5 Bft) 97,83 %
25.02.2023 17:14 5,1 C 4,4 C 0,6 C 56 % 1012,7 hPa 0,0 l/m 0 min 0 min 28 W/m 29,0 km/h (5 Bft) 95,74 %
25.02.2023 17:16 5,1 C 4,4 C 0,6 C 56 % 1012,8 hPa 0,0 l/m 0 min 0 min 33 W/m 32,2 km/h (5 Bft) 97,87 %
25.02.2023 17:18 5,1 C 4,4 C 0,6 C 56 % 1012,8 hPa 0,0 l/m 0 min 0 min 33 W/m 22,5 km/h (4 Bft) 95,74 %
25.02.2023 17:20 5,0 C 4,4 C 0,6 C 56 % 1012,8 hPa 0,0 l/m 0 min 0 min 31 W/m 16,1 km/h (3 Bft) 97,87 %
25.02.2023 17:22 5,0 C 4,4 C 0,6 C 57 % 1012,9 hPa 0,0 l/m 0 min 0 min 31 W/m 25,7 km/h (4 Bft) 97,87 %
25.02.2023 17:24 5,0 C 4,4 C 0,6 C 57 % 1013,0 hPa 0,0 l/m 0 min 0 min 28 W/m 22,5 km/h (4 Bft) 95,74 %
25.02.2023 17:26 4,9 C 4,4 C 0,6 C 57 % 1012,9 hPa 0,0 l/m 0 min 0 min 25 W/m 19,3 km/h (3 Bft) 97,96 %
25.02.2023 17:28 4,9 C 4,4 C 0,6 C 57 % 1012,9 hPa 0,0 l/m 0 min 0 min 22 W/m 19,3 km/h (3 Bft) 97,87 %
25.02.2023 17:30 4,9 C 4,4 C 0,6 C 58 % 1013,0 hPa 0,0 l/m 0 min 0 min 21 W/m 22,5 km/h (4 Bft) 93,88 %
25.02.2023 17:32 4,9 C 3,9 C 0,6 C 59 % 1013,1 hPa 0,0 l/m 0 min 0 min 20 W/m 12,9 km/h (3 Bft) 97,87 %
25.02.2023 17:34 4,8 C 3,9 C 0,6 C 59 % 1013,1 hPa 0,0 l/m 0 min 0 min 19 W/m 19,3 km/h (3 Bft) 93,62 %
25.02.2023 17:36 4,8 C 3,9 C 0,6 C 60 % 1013,1 hPa 0,0 l/m 0 min 0 min 19 W/m 16,1 km/h (3 Bft) 97,83 %
25.02.2023 17:38 4,8 C 3,9 C 0,6 C 60 % 1013,1 hPa 0,0 l/m 0 min 0 min 19 W/m 16,1 km/h (3 Bft) 97,87 %
25.02.2023 17:40 4,7 C 3,9 C 0,6 C 60 % 1013,2 hPa 0,0 l/m 0 min 0 min 18 W/m 16,1 km/h (3 Bft) 93,62 %
25.02.2023 17:42 4,7 C 3,9 C 0,0 C 61 % 1013,2 hPa 0,0 l/m 0 min 0 min 18 W/m 12,9 km/h (3 Bft) 95,74 %
25.02.2023 17:44 4,7 C 3,9 C 0,0 C 61 % 1013,2 hPa 0,0 l/m 0 min 0 min 17 W/m 9,7 km/h (2 Bft) 95,74 %
25.02.2023 17:46 4,7 C 3,9 C 0,0 C 62 % 1013,3 hPa 0,0 l/m 0 min 0 min 16 W/m 19,3 km/h (3 Bft) 95,74 %
25.02.2023 17:48 4,6 C 3,9 C 0,0 C 62 % 1013,3 hPa 0,0 l/m 0 min 0 min 14 W/m 9,7 km/h (2 Bft) 95,65 %
25.02.2023 17:50 4,6 C 3,9 C 0,0 C 62 % 1013,3 hPa 0,0 l/m 0 min 0 min 13 W/m 6,4 km/h (2 Bft) 93,62 %
25.02.2023 17:52 4,6 C 3,9 C 0,0 C 62 % 1013,4 hPa 0,0 l/m 0 min 0 min 12 W/m 9,7 km/h (2 Bft) 95,74 %
25.02.2023 17:54 4,5 C 3,3 C 0,0 C 63 % 1013,4 hPa 0,0 l/m 0 min 0 min 11 W/m 12,9 km/h (3 Bft) 91,49 %
25.02.2023 17:56 4,5 C 3,3 C 0,0 C 63 % 1013,5 hPa 0,0 l/m 0 min 0 min 11 W/m 6,4 km/h (2 Bft) 95,74 %
25.02.2023 17:58 4,4 C 3,3 C 0,0 C 63 % 1013,6 hPa 0,0 l/m 0 min 0 min 10 W/m 6,4 km/h (2 Bft) 95,74 %
25.02.2023 18:00 4,4 C 3,3 C 0,0 C 63 % 1013,5 hPa 0,0 l/m 0 min 0 min 9 W/m 9,7 km/h (2 Bft) 89,13 %
25.02.2023 18:02 4,3 C 3,3 C -0,6 C 63 % 1013,6 hPa 0,0 l/m 0 min 0 min 7 W/m 16,1 km/h (3 Bft) 95,74 %
25.02.2023 18:04 4,3 C 3,3 C -0,6 C 63 % 1013,6 hPa 0,0 l/m 0 min 0 min 7 W/m 19,3 km/h (3 Bft) 95,74 %
25.02.2023 18:07 4,2 C 3,3 C 0,0 C 63 % 1013,7 hPa 0,0 l/m 0 min 0 min 5 W/m 16,1 km/h (3 Bft) 95,71 %
25.02.2023 18:08 4,2 C 3,3 C -0,6 C 63 % 1013,7 hPa 0,0 l/m 0 min 0 min 5 W/m 3,2 km/h (1 Bft) 100,00 %
25.02.2023 18:12 4,1 C 3,3 C -0,6 C 63 % 1013,7 hPa 0,0 l/m 0 min 0 min 0 W/m 19,3 km/h (3 Bft) 98,18 %
25.02.2023 18:14 4,1 C 2,8 C -0,6 C 63 % 1013,7 hPa 0,0 l/m 0 min 0 min 0 W/m 19,3 km/h (3 Bft) 100,00 %
25.02.2023 18:16 4,1 C 3,3 C -0,6 C 63 % 1013,8 hPa 0,0 l/m 0 min 0 min 0 W/m 16,1 km/h (3 Bft) 100,00 %
25.02.2023 18:18 4,0 C 3,3 C -0,6 C 63 % 1013,8 hPa 0,0 l/m 0 min 0 min 0 W/m 22,5 km/h (4 Bft) 97,83 %
25.02.2023 18:20 4,0 C 2,8 C -0,6 C 63 % 1013,9 hPa 0,0 l/m 0 min 0 min 0 W/m 12,9 km/h (3 Bft) 100,00 %
25.02.2023 18:22 3,9 C 2,8 C -0,6 C 63 % 1013,9 hPa 0,0 l/m 0 min 0 min 0 W/m 16,1 km/h (3 Bft) 97,87 %
25.02.2023 18:24 3,9 C 2,8 C -0,6 C 63 % 1013,9 hPa 0,0 l/m 0 min 0 min 0 W/m 25,7 km/h (4 Bft) 96,00 %
25.02.2023 18:26 3,9 C 2,8 C -0,6 C 63 % 1013,9 hPa 0,0 l/m 0 min 0 min 0 W/m 16,1 km/h (3 Bft) 100,00 %
25.02.2023 18:28 3,9 C 2,8 C -0,6 C 63 % 1014,0 hPa 0,0 l/m 0 min 0 min 0 W/m 12,9 km/h (3 Bft) 95,74 %
25.02.2023 18:30 3,8 C 2,8 C -0,6 C 63 % 1014,0 hPa 0,0 l/m 0 min 0 min 0 W/m 16,1 km/h (3 Bft) 97,83 %
25.02.2023 18:32 3,8 C 2,8 C -0,6 C 63 % 1014,0 hPa 0,0 l/m 0 min 0 min 0 W/m 16,1 km/h (3 Bft) 100,00 %
25.02.2023 18:34 3,8 C 2,8 C -0,6 C 63 % 1014,0 hPa 0,0 l/m 0 min 0 min 0 W/m 12,9 km/h (3 Bft) 100,00 %
25.02.2023 18:36 3,7 C 2,8 C -0,6 C 63 % 1014,1 hPa 0,0 l/m 0 min 0 min 0 W/m 19,3 km/h (3 Bft) 97,87 %
25.02.2023 18:38 3,7 C 2,8 C -0,6 C 62 % 1014,0 hPa 0,0 l/m 0 min 0 min 0 W/m 25,7 km/h (4 Bft) 100,00 %
25.02.2023 18:40 3,7 C 2,8 C -0,6 C 62 % 1014,1 hPa 0,0 l/m 0 min 0 min 0 W/m 19,3 km/h (3 Bft) 100,00 %
25.02.2023 18:42 3,7 C 2,8 C -0,6 C 62 % 1014,1 hPa 0,0 l/m 0 min 0 min 0 W/m 16,1 km/h (3 Bft) 93,48 %
25.02.2023 18:44 3,6 C 2,8 C -0,6 C 62 % 1014,1 hPa 0,0 l/m 0 min 0 min 0 W/m 12,9 km/h (3 Bft) 97,87 %
25.02.2023 18:46 3,6 C 2,8 C -0,6 C 62 % 1014,2 hPa 0,0 l/m 0 min 0 min 0 W/m 22,5 km/h (4 Bft) 97,87 %
25.02.2023 18:48 3,6 C 2,8 C -0,6 C 62 % 1014,2 hPa 0,0 l/m 0 min 0 min 0 W/m 16,1 km/h (3 Bft) 97,87 %
25.02.2023 18:50 3,6 C 2,8 C -0,6 C 62 % 1014,2 hPa 0,0 l/m 0 min 0 min 0 W/m 16,1 km/h (3 Bft) 100,00 %
25.02.2023 18:52 3,6 C 2,8 C -0,6 C 61 % 1014,2 hPa 0,0 l/m 0 min 0 min 0 W/m 22,5 km/h (4 Bft) 97,87 %
25.02.2023 18:54 3,6 C 2,8 C -0,6 C 61 % 1014,3 hPa 0,0 l/m 0 min 0 min 0 W/m 12,9 km/h (3 Bft) 97,87 %
25.02.2023 18:56 3,5 C 2,8 C -1,1 C 61 % 1014,3 hPa 0,0 l/m 0 min 0 min 0 W/m 29,0 km/h (5 Bft) 100,00 %
25.02.2023 18:58 3,5 C 2,8 C -1,1 C 61 % 1014,3 hPa 0,0 l/m 0 min 0 min 0 W/m 12,9 km/h (3 Bft) 100,00 %
25.02.2023 19:00 3,4 C 2,2 C -1,1 C 61 % 1014,4 hPa 0,0 l/m 0 min 0 min 0 W/m 9,7 km/h (2 Bft) 100,00 %
25.02.2023 19:02 3,4 C 2,2 C -1,1 C 62 % 1014,4 hPa 0,0 l/m 0 min 0 min 0 W/m 16,1 km/h (3 Bft) 100,00 %
25.02.2023 19:04 3,4 C 2,2 C -1,1 C 62 % 1014,4 hPa 0,0 l/m 0 min 0 min 0 W/m 9,7 km/h (2 Bft) 97,87 %
25.02.2023 19:06 3,3 C 2,2 C -1,1 C 62 % 1014,4 hPa 0,0 l/m 0 min 0 min 0 W/m 16,1 km/h (3 Bft) 100,00 %
25.02.2023 19:08 3,3 C 2,2 C -1,1 C 62 % 1014,5 hPa 0,0 l/m 0 min 0 min 0 W/m 9,7 km/h (2 Bft) 97,87 %
25.02.2023 19:10 3,3 C 2,2 C -1,1 C 62 % 1014,5 hPa 0,0 l/m 0 min 0 min 0 W/m 6,4 km/h (2 Bft) 100,00 %
25.02.2023 19:12 3,2 C 2,2 C -1,1 C 63 % 1014,6 hPa 0,0 l/m 0 min 0 min 0 W/m 12,9 km/h (3 Bft) 100,00 %
25.02.2023 19:14 3,2 C 2,2 C -1,1 C 63 % 1014,6 hPa 0,0 l/m 0 min 0 min 0 W/m 16,1 km/h (3 Bft) 100,00 %
25.02.2023 19:16 3,1 C 2,2 C -1,7 C 64 % 1014,6 hPa 0,0 l/m 0 min 0 min 0 W/m 9,7 km/h (2 Bft) 100,00 %
25.02.2023 19:18 3,1 C 2,2 C -1,7 C 64 % 1014,5 hPa 0,0 l/m 0 min 0 min 0 W/m 12,9 km/h (3 Bft) 100,00 %
25.02.2023 19:20 3,1 C 2,2 C -1,7 C 64 % 1014,7 hPa 0,0 l/m 0 min 0 min 0 W/m 12,9 km/h (3 Bft) 100,00 %
25.02.2023 19:22 3,0 C 2,2 C -1,7 C 64 % 1014,7 hPa 0,0 l/m 0 min 0 min 0 W/m 16,1 km/h (3 Bft) 97,87 %
25.02.2023 19:24 3,0 C 1,7 C -1,7 C 64 % 1014,7 hPa 0,0 l/m 0 min 0 min 0 W/m 12,9 km/h (3 Bft) 95,74 %
25.02.2023 19:26 2,9 C 1,7 C -1,7 C 65 % 1014,7 hPa 0,0 l/m 0 min 0 min 0 W/m 16,1 km/h (3 Bft) 95,74 %
25.02.2023 19:28 2,9 C 2,2 C -1,7 C 64 % 1014,8 hPa 0,0 l/m 0 min 0 min 0 W/m 22,5 km/h (4 Bft) 97,87 %
25.02.2023 19:30 2,9 C 2,2 C -1,7 C 65 % 1014,8 hPa 0,0 l/m 0 min 0 min 0 W/m 22,5 km/h (4 Bft) 95,74 %
25.02.2023 19:32 2,9 C 2,2 C -1,7 C 64 % 1014,9 hPa 0,0 l/m 0 min 0 min 0 W/m 19,3 km/h (3 Bft) 93,75 %
25.02.2023 19:34 2,9 C 2,2 C -1,7 C 65 % 1014,9 hPa 0,0 l/m 0 min 0 min 0 W/m 16,1 km/h (3 Bft) 93,62 %
25.02.2023 19:36 2,8 C 2,2 C -1,7 C 65 % 1014,9 hPa 0,0 l/m 0 min 0 min 0 W/m 16,1 km/h (3 Bft) 97,87 %
25.02.2023 19:38 2,9 C 2,2 C -1,1 C 65 % 1014,9 hPa 0,0 l/m 0 min 0 min 0 W/m 12,9 km/h (3 Bft) 95,74 %
25.02.2023 19:40 2,8 C 2,2 C -1,7 C 65 % 1014,9 hPa 0,0 l/m 0 min 0 min 0 W/m 12,9 km/h (3 Bft) 95,74 %
25.02.2023 19:42 2,8 C 2,2 C -1,7 C 65 % 1015,0 hPa 0,0 l/m 0 min 0 min 0 W/m 16,1 km/h (3 Bft) 97,14 %
25.02.2023 19:44 2,8 C 2,2 C -1,7 C 65 % 1014,9 hPa 0,0 l/m 0 min 0 min 0 W/m 9,7 km/h (2 Bft) 91,49 %
25.02.2023 19:46 2,8 C 2,2 C -1,7 C 65 % 1015,0 hPa 0,0 l/m 0 min 0 min 0 W/m 19,3 km/h (3 Bft) 95,74 %
25.02.2023 19:48 2,8 C 1,7 C -1,7 C 66 % 1015,0 hPa 0,0 l/m 0 min 0 min 0 W/m 6,4 km/h (2 Bft) 95,65 %
25.02.2023 19:50 2,8 C 1,7 C -1,7 C 66 % 1015,1 hPa 0,0 l/m 0 min 0 min 0 W/m 12,9 km/h (3 Bft) 97,87 %
25.02.2023 19:52 2,7 C 1,7 C -1,7 C 66 % 1015,1 hPa 0,0 l/m 0 min 0 min 0 W/m 16,1 km/h (3 Bft) 97,87 %
25.02.2023 19:54 2,7 C 1,7 C -1,7 C 66 % 1015,1 hPa 0,0 l/m 0 min 0 min 0 W/m 22,5 km/h (4 Bft) 93,62 %
25.02.2023 19:56 2,7 C 1,7 C -1,7 C 66 % 1015,0 hPa 0,0 l/m 0 min 0 min 0 W/m 9,7 km/h (2 Bft) 95,74 %
25.02.2023 19:58 2,7 C 1,7 C -1,7 C 66 % 1015,0 hPa 0,0 l/m 0 min 0 min 0 W/m 25,7 km/h (4 Bft) 95,74 %
25.02.2023 20:00 2,7 C 1,7 C -1,7 C 67 % 1015,0 hPa 0,0 l/m 0 min 0 min 0 W/m 22,5 km/h (4 Bft) 93,62 %
25.02.2023 20:02 2,7 C 1,7 C -1,7 C 67 % 1015,1 hPa 0,0 l/m 0 min 0 min 0 W/m 16,1 km/h (3 Bft) 95,65 %
25.02.2023 20:04 2,7 C 1,7 C -1,7 C 67 % 1015,1 hPa 0,0 l/m 0 min 0 min 0 W/m 12,9 km/h (3 Bft) 95,83 %
25.02.2023 20:07 2,6 C 1,7 C -1,7 C 67 % 1015,1 hPa 0,0 l/m 0 min 0 min 0 W/m 9,7 km/h (2 Bft) 97,47 %
25.02.2023 20:08 2,6 C 1,7 C -1,7 C 67 % 1015,1 hPa 0,0 l/m 0 min 0 min 0 W/m 6,4 km/h (2 Bft) 95,83 %
25.02.2023 20:10 2,6 C 1,7 C -1,7 C 67 % 1015,2 hPa 0,0 l/m 0 min 0 min 0 W/m 9,7 km/h (2 Bft) 97,96 %
25.02.2023 20:12 2,5 C 1,7 C -1,7 C 67 % 1015,2 hPa 0,0 l/m 0 min 0 min 0 W/m 9,7 km/h (2 Bft) 97,83 %
25.02.2023 20:14 2,5 C 1,7 C -1,7 C 68 % 1015,2 hPa 0,0 l/m 0 min 0 min 0 W/m 16,1 km/h (3 Bft) 97,87 %
25.02.2023 20:16 2,4 C 1,7 C -1,7 C 68 % 1015,2 hPa 0,0 l/m 0 min 0 min 0 W/m 12,9 km/h (3 Bft) 95,74 %
25.02.2023 20:18 2,4 C 1,7 C -1,7 C 68 % 1015,2 hPa 0,0 l/m 0 min 0 min 0 W/m 9,7 km/h (2 Bft) 97,87 %
25.02.2023 20:20 2,4 C 1,1 C -2,2 C 68 % 1015,3 hPa 0,0 l/m 0 min 0 min 0 W/m 6,4 km/h (2 Bft) 97,87 %
25.02.2023 20:22 2,4 C 1,1 C -2,2 C 68 % 1015,3 hPa 0,0 l/m 0 min 0 min 0 W/m 9,7 km/h (2 Bft) 95,74 %
25.02.2023 20:24 2,4 C 1,1 C -2,2 C 68 % 1015,3 hPa 0,0 l/m 0 min 0 min 0 W/m 9,7 km/h (2 Bft) 97,87 %
25.02.2023 20:26 2,3 C 1,1 C -2,2 C 68 % 1015,3 hPa 0,0 l/m 0 min 0 min 0 W/m 12,9 km/h (3 Bft) 97,83 %
25.02.2023 20:28 2,3 C 1,1 C -2,2 C 68 % 1015,4 hPa 0,0 l/m 0 min 0 min 0 W/m 12,9 km/h (3 Bft) 97,92 %
25.02.2023 20:30 2,3 C 1,1 C -2,2 C 69 % 1015,4 hPa 0,0 l/m 0 min 0 min 0 W/m 16,1 km/h (3 Bft) 97,87 %
25.02.2023 20:32 2,3 C 1,1 C -2,2 C 69 % 1015,4 hPa 0,0 l/m 0 min 0 min 0 W/m 12,9 km/h (3 Bft) 97,87 %
25.02.2023 20:34 2,3 C 1,1 C -2,2 C 69 % 1015,4 hPa 0,0 l/m 0 min 0 min 0 W/m 9,7 km/h (2 Bft) 97,87 %
25.02.2023 20:36 2,2 C 1,1 C -2,2 C 69 % 1015,5 hPa 0,0 l/m 0 min 0 min 0 W/m 16,1 km/h (3 Bft) 97,87 %
25.02.2023 20:38 2,2 C 1,1 C -2,2 C 69 % 1015,4 hPa 0,0 l/m 0 min 0 min 0 W/m 9,7 km/h (2 Bft) 97,83 %
25.02.2023 20:40 2,2 C 1,1 C -2,2 C 69 % 1015,5 hPa 0,0 l/m 0 min 0 min 0 W/m 9,7 km/h (2 Bft) 95,74 %
25.02.2023 20:42 2,2 C 1,1 C -2,2 C 69 % 1015,5 hPa 0,0 l/m 0 min 0 min 0 W/m 12,9 km/h (3 Bft) 97,87 %
25.02.2023 20:44 2,1 C 1,1 C -2,2 C 70 % 1015,5 hPa 0,0 l/m 0 min 0 min 0 W/m 3,2 km/h (1 Bft) 97,87 %
25.02.2023 20:46 2,1 C 1,1 C -2,2 C 70 % 1015,5 hPa 0,0 l/m 0 min 0 min 0 W/m 6,4 km/h (2 Bft) 97,87 %
25.02.2023 20:48 2,1 C 1,1 C -2,2 C 70 % 1015,5 hPa 0,0 l/m 0 min 0 min 0 W/m 12,9 km/h (3 Bft) 97,87 %
25.02.2023 20:50 2,1 C 1,1 C -2,2 C 70 % 1015,5 hPa 0,0 l/m 0 min 0 min 0 W/m 9,7 km/h (2 Bft) 100,00 %
25.02.2023 20:52 2,0 C 0,6 C -2,2 C 70 % 1015,5 hPa 0,0 l/m 0 min 0 min 0 W/m 6,4 km/h (2 Bft) 97,92 %
25.02.2023 20:54 1,9 C 0,6 C -2,2 C 70 % 1015,5 hPa 0,0 l/m 0 min 0 min 0 W/m 12,9 km/h (3 Bft) 100,00 %
25.02.2023 20:56 1,9 C 0,6 C -2,2 C 71 % 1015,6 hPa 0,0 l/m 0 min 0 min 0 W/m 9,7 km/h (2 Bft) 97,87 %
25.02.2023 20:58 1,9 C 0,6 C -2,2 C 71 % 1015,5 hPa 0,0 l/m 0 min 0 min 0 W/m 9,7 km/h (2 Bft) 95,74 %
25.02.2023 21:00 1,9 C 0,6 C -2,2 C 71 % 1015,6 hPa 0,0 l/m 0 min 0 min 0 W/m 3,2 km/h (1 Bft) 100,00 %
25.02.2023 21:02 1,9 C 0,6 C -2,8 C 71 % 1015,6 hPa 0,0 l/m 0 min 0 min 0 W/m 6,4 km/h (2 Bft) 95,74 %
25.02.2023 21:04 1,8 C 0,6 C -2,8 C 71 % 1015,6 hPa 0,0 l/m 0 min 0 min 0 W/m 12,9 km/h (3 Bft) 100,00 %
25.02.2023 21:06 1,8 C 0,6 C -2,8 C 71 % 1015,6 hPa 0,0 l/m 0 min 0 min 0 W/m 9,7 km/h (2 Bft) 94,83 %
25.02.2023 21:08 1,8 C 0,6 C -2,8 C 72 % 1015,7 hPa 0,0 l/m 0 min 0 min 0 W/m 6,4 km/h (2 Bft) 94,29 %
25.02.2023 21:10 1,8 C 0,6 C -2,8 C 72 % 1015,7 hPa 0,0 l/m 0 min 0 min 0 W/m 12,9 km/h (3 Bft) 100,00 %
25.02.2023 21:12 1,7 C 0,6 C -2,8 C 72 % 1015,7 hPa 0,0 l/m 0 min 0 min 0 W/m 12,9 km/h (3 Bft) 93,62 %
25.02.2023 21:14 1,7 C 0,6 C -2,8 C 72 % 1015,6 hPa 0,0 l/m 0 min 0 min 0 W/m 6,4 km/h (2 Bft) 93,62 %
25.02.2023 21:16 1,7 C 0,6 C -2,8 C 73 % 1015,7 hPa 0,0 l/m 0 min 0 min 0 W/m 3,2 km/h (1 Bft) 95,74 %
25.02.2023 21:18 1,7 C 0,0 C -2,8 C 73 % 1015,7 hPa 0,0 l/m 0 min 0 min 0 W/m 9,7 km/h (2 Bft) 97,87 %
25.02.2023 21:20 1,6 C 0,0 C -2,8 C 73 % 1015,7 hPa 0,0 l/m 0 min 0 min 0 W/m 9,7 km/h (2 Bft) 97,83 %
25.02.2023 21:22 1,6 C 0,6 C -2,8 C 73 % 1015,7 hPa 0,0 l/m 0 min 0 min 0 W/m 12,9 km/h (3 Bft) 93,62 %
25.02.2023 21:24 1,6 C 0,6 C -2,8 C 74 % 1015,8 hPa 0,0 l/m 0 min 0 min 0 W/m 6,4 km/h (2 Bft) 98,11 %
25.02.2023 21:26 1,6 C 0,6 C -2,8 C 74 % 1015,8 hPa 0,0 l/m 0 min 0 min 0 W/m 12,9 km/h (3 Bft) 97,87 %
25.02.2023 21:28 1,5 C 0,6 C -2,8 C 74 % 1015,8 hPa 0,0 l/m 0 min 0 min 0 W/m 6,4 km/h (2 Bft) 95,65 %
25.02.2023 21:30 1,5 C 0,6 C -2,8 C 74 % 1015,9 hPa 0,0 l/m 0 min 0 min 0 W/m 6,4 km/h (2 Bft) 95,74 %
25.02.2023 21:32 1,4 C 0,6 C -2,8 C 74 % 1015,9 hPa 0,0 l/m 0 min 0 min 0 W/m 6,4 km/h (2 Bft) 93,48 %
25.02.2023 21:34 1,4 C 0,0 C -2,8 C 74 % 1015,9 hPa 0,0 l/m 0 min 0 min 0 W/m 16,1 km/h (3 Bft) 97,87 %
25.02.2023 21:36 1,4 C 0,6 C -2,8 C 74 % 1015,9 hPa 0,0 l/m 0 min 0 min 0 W/m 9,7 km/h (2 Bft) 97,87 %
25.02.2023 21:38 1,4 C 0,6 C -2,8 C 75 % 1016,0 hPa 0,0 l/m 0 min 0 min 0 W/m 6,4 km/h (2 Bft) 97,87 %
25.02.2023 21:40 1,4 C 0,6 C -2,8 C 75 % 1016,0 hPa 0,0 l/m 0 min 0 min 0 W/m 25,7 km/h (4 Bft) 97,87 %
25.02.2023 21:42 1,3 C 0,6 C -2,8 C 75 % 1016,0 hPa 0,0 l/m 0 min 0 min 0 W/m 9,7 km/h (2 Bft) 97,87 %
25.02.2023 21:44 1,3 C 0,6 C -2,8 C 75 % 1016,1 hPa 0,0 l/m 0 min 0 min 0 W/m 12,9 km/h (3 Bft) 97,96 %
25.02.2023 21:46 1,3 C 0,0 C -2,8 C 75 % 1016,1 hPa 0,0 l/m 0 min 0 min 0 W/m 9,7 km/h (2 Bft) 97,87 %
25.02.2023 21:48 1,3 C 0,0 C -2,8 C 75 % 1016,1 hPa 0,0 l/m 0 min 0 min 0 W/m 9,7 km/h (2 Bft) 93,62 %
25.02.2023 21:50 1,3 C 0,6 C -2,8 C 75 % 1016,1 hPa 0,0 l/m 0 min 0 min 0 W/m 12,9 km/h (3 Bft) 97,87 %
25.02.2023 21:52 1,3 C 0,6 C -2,8 C 76 % 1016,2 hPa 0,0 l/m 0 min 0 min 0 W/m 9,7 km/h (2 Bft) 97,87 %
25.02.2023 21:54 1,3 C 0,6 C -2,8 C 76 % 1016,1 hPa 0,0 l/m 0 min 0 min 0 W/m 9,7 km/h (2 Bft) 97,87 %
25.02.2023 21:56 1,3 C 0,6 C -2,8 C 76 % 1016,2 hPa 0,0 l/m 0 min 0 min 0 W/m 12,9 km/h (3 Bft) 95,65 %
25.02.2023 21:58 1,3 C 0,6 C -2,8 C 76 % 1016,2 hPa 0,0 l/m 0 min 0 min 0 W/m 12,9 km/h (3 Bft) 97,87 %
25.02.2023 22:00 1,3 C 0,6 C -2,8 C 76 % 1016,2 hPa 0,0 l/m 0 min 0 min 0 W/m 12,9 km/h (3 Bft) 97,87 %
25.02.2023 22:02 1,3 C 0,6 C -2,8 C 76 % 1016,2 hPa 0,0 l/m 0 min 0 min 0 W/m 12,9 km/h (3 Bft) 100,00 %
25.02.2023 22:04 1,3 C 0,6 C -2,8 C 76 % 1016,2 hPa 0,0 l/m 0 min 0 min 0 W/m 9,7 km/h (2 Bft) 100,00 %
25.02.2023 22:06 1,3 C 0,6 C -2,8 C 76 % 1016,3 hPa 0,0 l/m 0 min 0 min 0 W/m 12,9 km/h (3 Bft) 100,00 %
25.02.2023 22:08 1,3 C 0,6 C -2,8 C 76 % 1016,3 hPa 0,0 l/m 0 min 0 min 0 W/m 6,4 km/h (2 Bft) 100,00 %
25.02.2023 22:10 1,2 C 0,6 C -2,8 C 76 % 1016,3 hPa 0,0 l/m 0 min 0 min 0 W/m 6,4 km/h (2 Bft) 100,00 %
25.02.2023 22:12 1,2 C 0,0 C -2,8 C 76 % 1016,4 hPa 0,0 l/m 0 min 0 min 0 W/m 12,9 km/h (3 Bft) 100,00 %
25.02.2023 22:14 1,2 C 0,0 C -2,8 C 76 % 1016,4 hPa 0,0 l/m 0 min 0 min 0 W/m 12,9 km/h (3 Bft) 100,00 %
25.02.2023 22:16 1,2 C 0,0 C -2,8 C 76 % 1016,4 hPa 0,0 l/m 0 min 0 min 0 W/m 16,1 km/h (3 Bft) 100,00 %
25.02.2023 22:18 1,2 C 0,6 C -2,8 C 76 % 1016,5 hPa 0,0 l/m 0 min 0 min 0 W/m 12,9 km/h (3 Bft) 100,00 %
25.02.2023 22:20 1,2 C 0,6 C -2,8 C 77 % 1016,5 hPa 0,0 l/m 0 min 0 min 0 W/m 12,9 km/h (3 Bft) 100,00 %
25.02.2023 22:22 1,2 C 0,6 C -2,8 C 77 % 1016,5 hPa 0,0 l/m 0 min 0 min 0 W/m 16,1 km/h (3 Bft) 95,74 %
25.02.2023 22:24 1,2 C 0,6 C -2,8 C 77 % 1016,5 hPa 0,0 l/m 0 min 0 min 0 W/m 12,9 km/h (3 Bft) 100,00 %
25.02.2023 22:26 1,2 C 0,6 C -2,8 C 77 % 1016,5 hPa 0,0 l/m 0 min 0 min 0 W/m 9,7 km/h (2 Bft) 100,00 %
25.02.2023 22:28 1,2 C 0,0 C -2,8 C 77 % 1016,5 hPa 0,0 l/m 0 min 0 min 0 W/m 12,9 km/h (3 Bft) 100,00 %
25.02.2023 22:30 1,2 C 0,6 C -2,8 C 77 % 1016,5 hPa 0,0 l/m 0 min 0 min 0 W/m 9,7 km/h (2 Bft) 100,00 %
25.02.2023 22:32 1,2 C 0,6 C -2,8 C 77 % 1016,5 hPa 0,0 l/m 0 min 0 min 0 W/m 9,7 km/h (2 Bft) 100,00 %
25.02.2023 22:34 1,2 C 0,0 C -2,8 C 77 % 1016,5 hPa 0,0 l/m 0 min 0 min 0 W/m 9,7 km/h (2 Bft) 100,00 %
25.02.2023 22:36 1,2 C 0,0 C -3,3 C 77 % 1016,6 hPa 0,0 l/m 0 min 0 min 0 W/m 9,7 km/h (2 Bft) 100,00 %
25.02.2023 22:38 1,2 C 0,0 C -2,8 C 77 % 1016,6 hPa 0,0 l/m 0 min 0 min 0 W/m 9,7 km/h (2 Bft) 100,00 %
25.02.2023 22:40 1,2 C 0,0 C -3,3 C 78 % 1016,6 hPa 0,0 l/m 0 min 0 min 0 W/m 6,4 km/h (2 Bft) 98,15 %
25.02.2023 22:42 1,1 C 0,0 C -3,3 C 78 % 1016,7 hPa 0,0 l/m 0 min 0 min 0 W/m 12,9 km/h (3 Bft) 100,00 %
25.02.2023 22:44 1,1 C 0,0 C -3,3 C 78 % 1016,7 hPa 0,0 l/m 0 min 0 min 0 W/m 12,9 km/h (3 Bft) 97,87 %
25.02.2023 22:46 1,1 C 0,0 C -3,3 C 78 % 1016,7 hPa 0,0 l/m 0 min 0 min 0 W/m 9,7 km/h (2 Bft) 100,00 %
25.02.2023 22:48 1,1 C 0,0 C -3,3 C 78 % 1016,7 hPa 0,0 l/m 0 min 0 min 0 W/m 6,4 km/h (2 Bft) 97,83 %
25.02.2023 22:50 1,1 C 0,0 C -3,3 C 78 % 1016,7 hPa 0,0 l/m 0 min 0 min 0 W/m 6,4 km/h (2 Bft) 97,87 %
25.02.2023 22:52 1,1 C 0,0 C -3,3 C 78 % 1016,8 hPa 0,0 l/m 0 min 0 min 0 W/m 12,9 km/h (3 Bft) 95,74 %
25.02.2023 22:54 1,1 C 0,0 C -3,3 C 79 % 1016,8 hPa 0,0 l/m 0 min 0 min 0 W/m 19,3 km/h (3 Bft) 97,87 %
25.02.2023 22:56 1,1 C 0,0 C -3,3 C 79 % 1016,7 hPa 0,0 l/m 0 min 0 min 0 W/m 9,7 km/h (2 Bft) 93,62 %
25.02.2023 22:58 1,1 C 0,0 C -3,3 C 79 % 1016,7 hPa 0,0 l/m 0 min 0 min 0 W/m 9,7 km/h (2 Bft) 97,87 %
25.02.2023 23:00 1,1 C 0,0 C -3,3 C 79 % 1016,7 hPa 0,0 l/m 0 min 0 min 0 W/m 9,7 km/h (2 Bft) 97,83 %
25.02.2023 23:02 1,1 C 0,0 C -3,3 C 79 % 1016,7 hPa 0,0 l/m 0 min 0 min 0 W/m 9,7 km/h (2 Bft) 97,87 %
25.02.2023 23:04 1,0 C 0,0 C -3,3 C 79 % 1016,8 hPa 0,0 l/m 0 min 0 min 0 W/m 16,1 km/h (3 Bft) 97,87 %
25.02.2023 23:06 1,0 C 0,0 C -3,3 C 79 % 1016,7 hPa 0,0 l/m 0 min 0 min 0 W/m 16,1 km/h (3 Bft) 97,87 %
25.02.2023 23:08 1,0 C 0,0 C -3,3 C 79 % 1016,8 hPa 0,0 l/m 0 min 0 min 0 W/m 9,7 km/h (2 Bft) 95,74 %
25.02.2023 23:10 1,0 C 0,0 C -3,3 C 79 % 1016,8 hPa 0,0 l/m 0 min 0 min 0 W/m 9,7 km/h (2 Bft) 95,74 %
25.02.2023 23:12 1,0 C 0,0 C -3,3 C 79 % 1016,8 hPa 0,0 l/m 0 min 0 min 0 W/m 19,3 km/h (3 Bft) 95,74 %
25.02.2023 23:14 1,0 C 0,0 C -3,3 C 80 % 1016,8 hPa 0,0 l/m 0 min 0 min 0 W/m 16,1 km/h (3 Bft) 97,83 %
25.02.2023 23:16 1,0 C 0,0 C -3,3 C 80 % 1016,8 hPa 0,0 l/m 0 min 0 min 0 W/m 9,7 km/h (2 Bft) 95,74 %
25.02.2023 23:18 1,0 C 0,0 C -3,3 C 80 % 1016,9 hPa 0,0 l/m 0 min 0 min 0 W/m 9,7 km/h (2 Bft) 97,87 %
25.02.2023 23:20 1,0 C 0,0 C -3,3 C 80 % 1016,9 hPa 0,0 l/m 0 min 0 min 0 W/m 12,9 km/h (3 Bft) 97,87 %
25.02.2023 23:22 0,9 C 0,0 C -3,3 C 80 % 1017,0 hPa 0,0 l/m 0 min 0 min 0 W/m 9,7 km/h (2 Bft) 95,74 %
25.02.2023 23:24 0,9 C 0,0 C -3,3 C 80 % 1017,0 hPa 0,0 l/m 0 min 0 min 0 W/m 12,9 km/h (3 Bft) 97,87 %
25.02.2023 23:26 0,9 C 0,0 C -3,3 C 80 % 1017,0 hPa 0,0 l/m 0 min 0 min 0 W/m 9,7 km/h (2 Bft) 97,83 %
25.02.2023 23:28 0,9 C 0,0 C -3,3 C 80 % 1017,0 hPa 0,0 l/m 0 min 0 min 0 W/m 12,9 km/h (3 Bft) 95,74 %
25.02.2023 23:30 0,9 C 0,0 C -3,3 C 80 % 1016,9 hPa 0,0 l/m 0 min 0 min 0 W/m 16,1 km/h (3 Bft) 95,74 %
25.02.2023 23:32 0,9 C 0,0 C -3,3 C 80 % 1016,9 hPa 0,0 l/m 0 min 0 min 0 W/m 12,9 km/h (3 Bft) 93,62 %
25.02.2023 23:34 0,9 C 0,0 C -3,3 C 80 % 1016,9 hPa 0,0 l/m 0 min 0 min 0 W/m 12,9 km/h (3 Bft) 95,74 %
25.02.2023 23:36 0,9 C 0,0 C -3,3 C 80 % 1017,0 hPa 0,0 l/m 0 min 0 min 0 W/m 9,7 km/h (2 Bft) 95,74 %
25.02.2023 23:38 0,8 C 0,0 C -3,3 C 80 % 1017,0 hPa 0,0 l/m 0 min 0 min 0 W/m 9,7 km/h (2 Bft) 95,74 %
25.02.2023 23:40 0,8 C 0,0 C -3,3 C 81 % 1017,1 hPa 0,0 l/m 0 min 0 min 0 W/m 9,7 km/h (2 Bft) 95,65 %
25.02.2023 23:42 0,8 C 0,0 C -3,3 C 81 % 1017,1 hPa 0,0 l/m 0 min 0 min 0 W/m 9,7 km/h (2 Bft) 93,62 %
25.02.2023 23:44 0,8 C 0,0 C -3,3 C 81 % 1017,0 hPa 0,0 l/m 0 min 0 min 0 W/m 9,7 km/h (2 Bft) 93,62 %
25.02.2023 23:46 0,8 C 0,0 C -3,3 C 81 % 1017,1 hPa 0,0 l/m 0 min 0 min 0 W/m 9,7 km/h (2 Bft) 95,74 %
25.02.2023 23:48 0,8 C 0,0 C -3,3 C 81 % 1017,1 hPa 0,0 l/m 0 min 0 min 0 W/m 9,7 km/h (2 Bft) 95,74 %
25.02.2023 23:50 0,8 C 0,0 C -3,3 C 81 % 1017,1 hPa 0,0 l/m 0 min 0 min 0 W/m 9,7 km/h (2 Bft) 93,75 %
25.02.2023 23:52 0,8 C 0,0 C -3,3 C 81 % 1017,1 hPa 0,0 l/m 0 min 0 min 0 W/m 12,9 km/h (3 Bft) 97,22 %
25.02.2023 23:54 0,7 C 0,0 C -3,3 C 81 % 1017,1 hPa 0,0 l/m 0 min 0 min 0 W/m 9,7 km/h (2 Bft) 93,62 %
25.02.2023 23:56 0,7 C 0,0 C -3,3 C 81 % 1017,1 hPa 0,0 l/m 0 min 0 min 0 W/m 9,7 km/h (2 Bft) 93,48 %
25.02.2023 23:58 0,7 C -0,6 C -3,3 C 81 % 1017,1 hPa 0,0 l/m 0 min 0 min 0 W/m 9,7 km/h (2 Bft) 95,74 %
_ Min-Zeit 23:54 23:58 22:36 15:46 00:00 - - - - 18:08 01:32
Minimum _ 0,7 C -0,6 C -3,3 C 54 % 1006,9 hPa - - - - 3,2 km/h (1 Bft) 50,00 %
_ Max-Zeit 13:46 13:28 13:42 00:20 23:40 00:00 08:44 11:04 12:56 12:44 00:16
Maximum _ 8,6 C 17,2 C 5,0 C 93 % 1017,1 hPa 0,0 l/m 2 min 2 min 698 W/m 41,8 km/h
NO (6 Bft)
100,00 %
Durchschnitt _ 4,0 C 4,0 C 0,5 C 79 % 1010,8 hPa #0,0 l/m #3:28 h #22 min. 182 W/m 16,0 km/h (3 Bft) 97,18 %
© 2023 W. Hausmann